Wetterdaten: aktuell Donnerstag, 23.01.2020 13:24
Datum Zeit Temp. I. Temp. A. Feuchte I. Feuchte A. Luftdruck Regen Wind Richtung Richtung Taupunkt Windchill Windben
23.01.2020 13:24 22,2 C 3,2 C 31 % 86 % 1029,1 hPa 0,0 l/m 1,1 km/h (1 Bft) SW 229 1,1 C 3,2 C 3,2 km/h (1 Bft)
23.01.2020 13:22 22,2 C 3,2 C 31 % 86 % 1029,1 hPa 0,0 l/m 2,2 km/h (1 Bft) SW 229 1,1 C 3,2 C 4,8 km/h (1 Bft)
23.01.2020 13:20 22,2 C 3,2 C 31 % 86 % 1029,1 hPa 0,0 l/m 0,0 km/h (0 Bft) SW 228 1,1 C 3,2 C 0,0 km/h (0 Bft)
23.01.2020 13:18 22,2 C 3,2 C 31 % 86 % 1029,1 hPa 0,0 l/m 2,4 km/h (1 Bft) SW 228 1,1 C 3,2 C 6,4 km/h (2 Bft)
23.01.2020 13:16 22,2 C 3,2 C 31 % 86 % 1029,1 hPa 0,0 l/m 3,2 km/h (1 Bft) SW 228 1,1 C 3,2 C 4,8 km/h (1 Bft)
23.01.2020 13:14 22,2 C 3,2 C 31 % 86 % 1029,2 hPa 0,0 l/m 3,0 km/h (1 Bft) SW 235 1,1 C 3,2 C 8,0 km/h (2 Bft)
23.01.2020 13:12 22,2 C 3,2 C 31 % 86 % 1029,2 hPa 0,0 l/m 1,4 km/h (1 Bft) SW 225 1,1 C 3,2 C 4,8 km/h (1 Bft)
23.01.2020 13:10 22,2 C 3,2 C 31 % 86 % 1029,2 hPa 0,0 l/m 2,7 km/h (1 Bft) SW 225 1,1 C 3,2 C 6,4 km/h (2 Bft)
23.01.2020 13:08 22,2 C 3,2 C 31 % 86 % 1029,2 hPa 0,0 l/m 2,0 km/h (1 Bft) SW 233 1,1 C 3,2 C 4,8 km/h (1 Bft)
23.01.2020 13:06 22,2 C 3,2 C 31 % 86 % 1029,2 hPa 0,0 l/m 0,8 km/h (0 Bft) SW 233 1,1 C 3,2 C 3,2 km/h (1 Bft)
23.01.2020 13:04 22,2 C 3,2 C 31 % 86 % 1029,2 hPa 0,0 l/m 2,1 km/h (1 Bft) S-SW 210 1,1 C 3,2 C 6,4 km/h (2 Bft)
23.01.2020 13:02 22,2 C 3,3 C 31 % 86 % 1029,2 hPa 0,0 l/m 2,6 km/h (1 Bft) W-SW 248 1,2 C 3,3 C 6,4 km/h (2 Bft)
23.01.2020 13:00 22,1 C 3,3 C 31 % 86 % 1029,2 hPa 0,0 l/m 3,6 km/h (1 Bft) W-SW 248 1,2 C 3,3 C 6,4 km/h (2 Bft)
23.01.2020 12:58 22,1 C 3,3 C 31 % 86 % 1029,5 hPa 0,0 l/m 2,5 km/h (1 Bft) W-SW 248 1,2 C 3,3 C 6,4 km/h (2 Bft)
23.01.2020 12:56 22,1 C 3,3 C 31 % 86 % 1029,5 hPa 0,0 l/m 1,9 km/h (1 Bft) W-SW 248 1,2 C 3,3 C 3,2 km/h (1 Bft)
23.01.2020 12:54 22,1 C 3,2 C 31 % 86 % 1029,5 hPa 0,0 l/m 2,3 km/h (1 Bft) W-SW 248 1,1 C 3,2 C 4,8 km/h (1 Bft)
23.01.2020 12:52 22,1 C 3,2 C 31 % 86 % 1029,5 hPa 0,0 l/m 2,5 km/h (1 Bft) W-SW 248 1,1 C 3,2 C 6,4 km/h (2 Bft)
23.01.2020 12:50 22,1 C 3,2 C 31 % 86 % 1029,5 hPa 0,0 l/m 1,8 km/h (1 Bft) O 94 1,1 C 3,2 C 4,8 km/h (1 Bft)
23.01.2020 12:48 22,1 C 3,2 C 31 % 86 % 1029,5 hPa 0,0 l/m 0,9 km/h (0 Bft) O 94 1,1 C 3,2 C 3,2 km/h (1 Bft)
23.01.2020 12:46 22,1 C 3,2 C 31 % 86 % 1029,5 hPa 0,0 l/m 1,5 km/h (1 Bft) O 94 1,1 C 3,2 C 3,2 km/h (1 Bft)
23.01.2020 12:44 22,1 C 3,2 C 31 % 86 % 1029,6 hPa 0,0 l/m 1,5 km/h (1 Bft) O 93 1,1 C 3,2 C 3,2 km/h (1 Bft)
23.01.2020 12:42 22,1 C 3,2 C 31 % 86 % 1029,6 hPa 0,0 l/m 1,5 km/h (1 Bft) O 90 1,1 C 3,2 C 3,2 km/h (1 Bft)
23.01.2020 12:40 22,1 C 3,2 C 31 % 86 % 1029,6 hPa 0,0 l/m 2,9 km/h (1 Bft) O 88 1,1 C 3,2 C 4,8 km/h (1 Bft)
23.01.2020 12:38 22,1 C 3,2 C 31 % 86 % 1029,6 hPa 0,0 l/m 3,7 km/h (1 Bft) O-NO 63 1,1 C 3,2 C 6,4 km/h (2 Bft)
23.01.2020 12:36 22,1 C 3,2 C 31 % 86 % 1029,6 hPa 0,0 l/m 1,5 km/h (1 Bft) O-NO 59 1,1 C 3,2 C 4,8 km/h (1 Bft)
23.01.2020 12:34 22,1 C 3,2 C 31 % 86 % 1029,6 hPa 0,0 l/m 3,0 km/h (1 Bft) O-NO 68 1,1 C 3,2 C 6,4 km/h (2 Bft)
23.01.2020 12:32 22,1 C 3,2 C 31 % 86 % 1029,6 hPa 0,0 l/m 2,8 km/h (1 Bft) O 80 1,1 C 3,2 C 4,8 km/h (1 Bft)
23.01.2020 12:30 22,1 C 3,3 C 31 % 86 % 1029,6 hPa 0,0 l/m 2,6 km/h (1 Bft) O-SO 107 1,2 C 3,3 C 4,8 km/h (1 Bft)
23.01.2020 12:29 22,1 C 3,3 C 31 % 86 % 1029,6 hPa 0,0 l/m 0,9 km/h (0 Bft) O-SO 106 1,2 C 3,3 C 4,8 km/h (1 Bft)
23.01.2020 12:26 22,1 C 3,3 C 31 % 86 % 1030,0 hPa 0,0 l/m 0,0 km/h (0 Bft) W-SW 246 1,2 C 3,3 C 0,0 km/h (0 Bft)
23.01.2020 12:24 22,1 C 3,2 C 31 % 86 % 1030,0 hPa 0,0 l/m 0,0 km/h (0 Bft) W-SW 246 1,1 C 3,2 C 0,0 km/h (0 Bft)
23.01.2020 12:22 22,1 C 3,2 C 31 % 86 % 1030,0 hPa 0,0 l/m 0,2 km/h (0 Bft) W-SW 246 1,1 C 3,2 C 3,2 km/h (1 Bft)
23.01.2020 12:20 22,1 C 3,2 C 31 % 86 % 1030,0 hPa 0,0 l/m 0,0 km/h (0 Bft) SW 224 1,1 C 3,2 C 1,6 km/h (1 Bft)
23.01.2020 12:18 22,1 C 3,2 C 31 % 86 % 1030,0 hPa 0,0 l/m 3,3 km/h (1 Bft) SW 224 1,1 C 3,2 C 6,4 km/h (2 Bft)
23.01.2020 12:16 22,1 C 3,2 C 31 % 86 % 1030,0 hPa 0,0 l/m 0,7 km/h (0 Bft) SW 225 1,1 C 3,2 C 3,2 km/h (1 Bft)
23.01.2020 12:14 22,1 C 3,2 C 31 % 86 % 1030,2 hPa 0,0 l/m 1,8 km/h (1 Bft) O 90 1,1 C 3,2 C 3,2 km/h (1 Bft)
23.01.2020 12:12 22,1 C 3,2 C 31 % 86 % 1030,2 hPa 0,0 l/m 1,8 km/h (1 Bft) O 90 1,1 C 3,2 C 4,8 km/h (1 Bft)
23.01.2020 12:10 22,1 C 3,2 C 31 % 86 % 1030,2 hPa 0,0 l/m 2,1 km/h (1 Bft) O-SO 109 1,1 C 3,2 C 4,8 km/h (1 Bft)
23.01.2020 12:08 22,1 C 3,2 C 31 % 86 % 1030,2 hPa 0,0 l/m 2,0 km/h (1 Bft) O-SO 109 1,1 C 3,2 C 3,2 km/h (1 Bft)
23.01.2020 12:06 22,1 C 3,2 C 31 % 86 % 1030,2 hPa 0,0 l/m 2,0 km/h (1 Bft) O-SO 109 1,1 C 3,2 C 4,8 km/h (1 Bft)
23.01.2020 12:04 22,1 C 3,2 C 31 % 86 % 1030,2 hPa 0,0 l/m 2,8 km/h (1 Bft) O-SO 115 1,1 C 3,2 C 6,4 km/h (2 Bft)
23.01.2020 12:02 22,1 C 3,2 C 31 % 86 % 1030,2 hPa 0,0 l/m 0,9 km/h (0 Bft) SW 220 1,1 C 3,2 C 3,2 km/h (1 Bft)
23.01.2020 12:00 22,1 C 3,2 C 31 % 86 % 1030,2 hPa 0,0 l/m 1,2 km/h (1 Bft) SW 220 1,1 C 3,2 C 3,2 km/h (1 Bft)
23.01.2020 11:58 22,1 C 3,2 C 31 % 86 % 1030,5 hPa 0,0 l/m 0,8 km/h (0 Bft) SW 220 1,1 C 3,2 C 3,2 km/h (1 Bft)
23.01.2020 11:56 22,1 C 3,1 C 31 % 86 % 1030,5 hPa 0,0 l/m 0,0 km/h (0 Bft) SW 221 1,0 C 3,1 C 0,0 km/h (0 Bft)
23.01.2020 11:54 22,1 C 3,1 C 31 % 86 % 1030,5 hPa 0,0 l/m 0,6 km/h (0 Bft) SW 221 1,0 C 3,1 C 3,2 km/h (1 Bft)
23.01.2020 11:52 22,1 C 3,1 C 31 % 86 % 1030,5 hPa 0,0 l/m 0,8 km/h (0 Bft) SW 221 1,0 C 3,1 C 1,6 km/h (1 Bft)
23.01.2020 11:50 22,1 C 3,1 C 31 % 86 % 1030,5 hPa 0,0 l/m 1,5 km/h (1 Bft) SW 221 1,0 C 3,1 C 3,2 km/h (1 Bft)
23.01.2020 11:48 22,1 C 3,1 C 31 % 87 % 1030,5 hPa 0,0 l/m 3,4 km/h (1 Bft) SW 221 1,2 C 3,1 C 6,4 km/h (2 Bft)
23.01.2020 11:46 22,1 C 3,1 C 31 % 87 % 1030,5 hPa 0,0 l/m 2,5 km/h (1 Bft) SW 221 1,2 C 3,1 C 6,4 km/h (2 Bft)
23.01.2020 11:44 22,1 C 3,1 C 31 % 87 % 1030,5 hPa 0,0 l/m 0,9 km/h (0 Bft) S 175 1,2 C 3,1 C 4,8 km/h (1 Bft)
23.01.2020 11:42 22,1 C 3,0 C 31 % 87 % 1030,5 hPa 0,2 l/m 0,6 km/h (0 Bft) O 84 1,1 C 3,0 C 3,2 km/h (1 Bft)
23.01.2020 11:40 22,1 C 3,0 C 31 % 87 % 1030,5 hPa 0,0 l/m 2,3 km/h (1 Bft) O 84 1,1 C 3,0 C 4,8 km/h (1 Bft)
23.01.2020 11:38 22,1 C 3,0 C 31 % 87 % 1030,5 hPa 0,0 l/m 1,4 km/h (1 Bft) O 84 1,1 C 3,0 C 3,2 km/h (1 Bft)
23.01.2020 11:36 22,1 C 3,0 C 31 % 87 % 1030,5 hPa 0,0 l/m 3,2 km/h (1 Bft) O 84 1,1 C 3,0 C 4,8 km/h (1 Bft)
23.01.2020 11:34 22,1 C 3,0 C 31 % 87 % 1030,5 hPa 0,0 l/m 4,7 km/h (1 Bft) O 86 1,1 C 3,0 C 9,7 km/h (2 Bft)
23.01.2020 11:32 22,1 C 3,0 C 31 % 88 % 1030,5 hPa 0,0 l/m 4,5 km/h (1 Bft) O 82 1,2 C 3,0 C 11,3 km/h (2 Bft)
23.01.2020 11:30 22,1 C 3,0 C 33 % 88 % 1030,5 hPa 0,0 l/m 2,3 km/h (1 Bft) O-NO 75 1,2 C 3,0 C 4,8 km/h (1 Bft)
23.01.2020 11:28 22,1 C 3,0 C 31 % 88 % 1030,7 hPa 0,0 l/m 2,3 km/h (1 Bft) O 87 1,2 C 3,0 C 4,8 km/h (1 Bft)
23.01.2020 11:26 22,1 C 3,1 C 31 % 88 % 1030,7 hPa 0,0 l/m 2,6 km/h (1 Bft) O-NO 76 1,3 C 3,1 C 4,8 km/h (1 Bft)
23.01.2020 11:24 22,1 C 3,0 C 31 % 89 % 1030,7 hPa 0,0 l/m 2,1 km/h (1 Bft) O-NO 76 1,4 C 3,0 C 4,8 km/h (1 Bft)
23.01.2020 11:22 22,1 C 3,0 C 31 % 89 % 1030,7 hPa 0,0 l/m 1,6 km/h (1 Bft) O-NO 57 1,4 C 3,0 C 4,8 km/h (1 Bft)
23.01.2020 11:20 22,1 C 3,0 C 31 % 89 % 1030,7 hPa 0,0 l/m 1,1 km/h (1 Bft) O-NO 78 1,4 C 3,0 C 6,4 km/h (2 Bft)
23.01.2020 11:18 22,1 C 2,9 C 31 % 89 % 1030,7 hPa 0,0 l/m 0,0 km/h (0 Bft) W-SW 239 1,3 C 2,9 C 0,0 km/h (0 Bft)
23.01.2020 11:16 22,1 C 2,9 C 31 % 89 % 1030,7 hPa 0,0 l/m 0,0 km/h (0 Bft) W-SW 239 1,3 C 2,9 C 0,0 km/h (0 Bft)
23.01.2020 11:14 22,1 C 2,9 C 31 % 90 % 1030,7 hPa 0,0 l/m 0,9 km/h (0 Bft) W-SW 239 1,4 C 2,9 C 3,2 km/h (1 Bft)
23.01.2020 11:12 22,1 C 2,9 C 31 % 90 % 1030,7 hPa 0,0 l/m 2,3 km/h (1 Bft) W-SW 239 1,4 C 2,9 C 6,4 km/h (2 Bft)
23.01.2020 11:10 22,1 C 2,9 C 31 % 90 % 1030,7 hPa 0,0 l/m 0,0 km/h (0 Bft) W-SW 240 1,4 C 2,9 C 0,0 km/h (0 Bft)
23.01.2020 11:08 22,1 C 2,9 C 31 % 90 % 1030,7 hPa 0,0 l/m 1,3 km/h (1 Bft) W-SW 240 1,4 C 2,9 C 3,2 km/h (1 Bft)
23.01.2020 11:06 22,1 C 2,9 C 31 % 91 % 1030,7 hPa 0,0 l/m 2,3 km/h (1 Bft) W-SW 240 1,6 C 2,9 C 6,4 km/h (2 Bft)
23.01.2020 11:04 22,1 C 2,8 C 31 % 91 % 1030,7 hPa 0,0 l/m 2,9 km/h (1 Bft) SW 234 1,5 C 2,8 C 11,3 km/h (2 Bft)
23.01.2020 11:02 22,1 C 2,8 C 32 % 91 % 1030,7 hPa 0,0 l/m 5,5 km/h (1 Bft) SW 226 1,5 C 2,8 C 14,5 km/h (3 Bft)
23.01.2020 11:00 22,1 C 2,8 C 31 % 92 % 1030,7 hPa 0,0 l/m 1,8 km/h (1 Bft) SW 225 1,6 C 2,8 C 4,8 km/h (1 Bft)
23.01.2020 10:58 22,1 C 2,8 C 31 % 92 % 1030,8 hPa 0,0 l/m 1,0 km/h (0 Bft) S-SO 159 1,6 C 2,8 C 3,2 km/h (1 Bft)
23.01.2020 10:56 22,1 C 2,8 C 32 % 92 % 1030,8 hPa 0,0 l/m 1,8 km/h (1 Bft) O 101 1,6 C 2,8 C 6,4 km/h (2 Bft)
23.01.2020 10:54 22,1 C 2,8 C 32 % 93 % 1030,8 hPa 0,0 l/m 1,3 km/h (1 Bft) SO 134 1,8 C 2,8 C 3,2 km/h (1 Bft)
23.01.2020 10:52 22,1 C 2,8 C 32 % 93 % 1030,8 hPa 0,0 l/m 0,9 km/h (0 Bft) S-SO 153 1,8 C 2,8 C 3,2 km/h (1 Bft)
23.01.2020 10:50 22,1 C 2,7 C 32 % 93 % 1030,8 hPa 0,0 l/m 0,6 km/h (0 Bft) SW 222 1,7 C 2,7 C 1,6 km/h (1 Bft)
23.01.2020 10:47 22,1 C 2,7 C 32 % 94 % 1030,8 hPa 0,0 l/m 1,6 km/h (1 Bft) SW 225 1,8 C 2,7 C 3,2 km/h (1 Bft)
23.01.2020 10:46 22,1 C 2,7 C 31 % 94 % 1030,8 hPa 0,0 l/m 1,6 km/h (1 Bft) SW 225 1,8 C 2,7 C 3,2 km/h (1 Bft)
23.01.2020 10:45 22,1 C 2,7 C 32 % 94 % 1030,8 hPa 0,0 l/m 3,2 km/h (1 Bft) SW 225 1,8 C 2,7 C 6,4 km/h (2 Bft)
23.01.2020 10:44 22,1 C 2,7 C 32 % 94 % 1030,9 hPa 0,0 l/m 5,0 km/h (1 Bft) W-SW 238 1,8 C 2,7 C 8,0 km/h (2 Bft)
23.01.2020 10:42 22,1 C 2,7 C 32 % 94 % 1030,9 hPa 0,0 l/m 4,0 km/h (1 Bft) W-SW 238 1,8 C 2,7 C 6,4 km/h (2 Bft)
23.01.2020 10:40 22,1 C 2,7 C 31 % 95 % 1030,9 hPa 0,0 l/m 1,5 km/h (1 Bft) W-SW 254 2,0 C 2,7 C 4,8 km/h (1 Bft)
23.01.2020 10:38 22,1 C 2,7 C 32 % 95 % 1030,9 hPa 0,0 l/m 2,5 km/h (1 Bft) W-SW 254 2,0 C 2,7 C 4,8 km/h (1 Bft)
23.01.2020 10:36 22,1 C 2,7 C 32 % 95 % 1030,9 hPa 0,0 l/m 2,1 km/h (1 Bft) W-SW 254 2,0 C 2,7 C 4,8 km/h (1 Bft)
23.01.2020 10:34 22,1 C 2,7 C 32 % 95 % 1030,9 hPa 0,0 l/m 1,8 km/h (1 Bft) W-SW 254 2,0 C 2,7 C 6,4 km/h (2 Bft)
23.01.2020 10:32 22,1 C 2,7 C 32 % 95 % 1030,9 hPa 0,0 l/m 2,9 km/h (1 Bft) S-SW 207 2,0 C 2,7 C 9,7 km/h (2 Bft)
23.01.2020 10:30 22,1 C 2,7 C 32 % 96 % 1030,9 hPa 0,0 l/m 2,3 km/h (1 Bft) W 261 2,1 C 2,7 C 4,8 km/h (1 Bft)
23.01.2020 10:28 22,1 C 2,7 C 32 % 96 % 1030,8 hPa 0,0 l/m 0,6 km/h (0 Bft) O-SO 120 2,1 C 2,7 C 4,8 km/h (1 Bft)
23.01.2020 10:26 22,1 C 2,7 C 32 % 96 % 1030,8 hPa 0,0 l/m 0,0 km/h (0 Bft) O-SO 120 2,1 C 2,7 C 0,0 km/h (0 Bft)
23.01.2020 10:24 22,1 C 2,7 C 31 % 96 % 1030,8 hPa 0,0 l/m 0,0 km/h (0 Bft) O-SO 120 2,1 C 2,7 C 0,0 km/h (0 Bft)
23.01.2020 10:22 22,0 C 2,7 C 32 % 96 % 1030,8 hPa 0,0 l/m 0,0 km/h (0 Bft) O-SO 119 2,1 C 2,7 C 0,0 km/h (0 Bft)
23.01.2020 10:20 22,0 C 2,6 C 32 % 96 % 1030,8 hPa 0,0 l/m 0,0 km/h (0 Bft) O-SO 120 2,0 C 2,6 C 0,0 km/h (0 Bft)
23.01.2020 10:18 22,0 C 2,6 C 32 % 96 % 1030,8 hPa 0,0 l/m 0,0 km/h (0 Bft) O-SO 120 2,0 C 2,6 C 0,0 km/h (0 Bft)
23.01.2020 10:16 22,0 C 2,6 C 32 % 96 % 1030,8 hPa 0,0 l/m 0,0 km/h (0 Bft) O-SO 120 2,0 C 2,6 C 0,0 km/h (0 Bft)
23.01.2020 10:14 22,0 C 2,6 C 32 % 96 % 1030,8 hPa 0,0 l/m 0,0 km/h (0 Bft) O-SO 120 2,0 C 2,6 C 0,0 km/h (0 Bft)
23.01.2020 10:12 22,0 C 2,6 C 32 % 96 % 1030,8 hPa 0,0 l/m 0,0 km/h (0 Bft) O-SO 119 2,0 C 2,6 C 0,0 km/h (0 Bft)
23.01.2020 10:10 22,0 C 2,5 C 32 % 96 % 1030,8 hPa 0,0 l/m 0,0 km/h (0 Bft) O-SO 120 1,9 C 2,5 C 0,0 km/h (0 Bft)
23.01.2020 10:08 22,0 C 2,5 C 32 % 96 % 1030,8 hPa 0,0 l/m 0,1 km/h (0 Bft) O-SO 119 1,9 C 2,5 C 1,6 km/h (1 Bft)
23.01.2020 10:06 22,0 C 2,4 C 32 % 96 % 1030,8 hPa 0,0 l/m 0,4 km/h (0 Bft) O-SO 120 1,8 C 2,4 C 1,6 km/h (1 Bft)
23.01.2020 10:04 22,0 C 2,4 C 32 % 96 % 1030,8 hPa 0,0 l/m 0,7 km/h (0 Bft) O-SO 120 1,8 C 2,4 C 1,6 km/h (1 Bft)
23.01.2020 10:02 22,0 C 2,4 C 32 % 96 % 1030,8 hPa 0,0 l/m 0,0 km/h (0 Bft) O-SO 120 1,8 C 2,4 C 0,0 km/h (0 Bft)
23.01.2020 10:01 22,0 C 2,4 C 32 % 96 % 1030,8 hPa 0,0 l/m 1,3 km/h (1 Bft) O-SO 119 1,8 C 2,4 C 3,2 km/h (1 Bft)
23.01.2020 09:58 22,0 C 2,4 C 32 % 96 % 1030,9 hPa 0,0 l/m 0,2 km/h (0 Bft) SW 221 1,8 C 2,4 C 3,2 km/h (1 Bft)
23.01.2020 09:56 22,0 C 2,5 C 32 % 96 % 1030,9 hPa 0,0 l/m 0,0 km/h (0 Bft) SW 221 1,9 C 2,5 C 0,0 km/h (0 Bft)
23.01.2020 09:54 22,0 C 2,5 C 32 % 96 % 1030,9 hPa 0,0 l/m 0,0 km/h (0 Bft) SW 221 1,9 C 2,5 C 1,6 km/h (1 Bft)
23.01.2020 09:52 22,0 C 2,5 C 32 % 97 % 1030,9 hPa 0,0 l/m 1,5 km/h (1 Bft) SW 221 2,1 C 2,5 C 4,8 km/h (1 Bft)
23.01.2020 09:50 22,0 C 2,4 C 32 % 97 % 1030,9 hPa 0,0 l/m 0,0 km/h (0 Bft) S-SW 209 2,0 C 2,4 C 0,0 km/h (0 Bft)
23.01.2020 09:48 22,0 C 2,4 C 32 % 97 % 1030,9 hPa 0,0 l/m 0,0 km/h (0 Bft) S-SW 209 2,0 C 2,4 C 0,0 km/h (0 Bft)
23.01.2020 09:46 22,0 C 2,4 C 32 % 97 % 1030,9 hPa 0,0 l/m 0,1 km/h (0 Bft) S-SW 209 2,0 C 2,4 C 1,6 km/h (1 Bft)
23.01.2020 09:44 22,0 C 2,4 C 32 % 97 % 1031,2 hPa 0,0 l/m 0,0 km/h (0 Bft) S-SW 209 2,0 C 2,4 C 0,0 km/h (0 Bft)
23.01.2020 09:42 22,0 C 2,4 C 32 % 97 % 1031,2 hPa 0,0 l/m 0,0 km/h (0 Bft) S-SW 209 2,0 C 2,4 C 0,0 km/h (0 Bft)
23.01.2020 09:40 22,0 C 2,4 C 32 % 96 % 1031,2 hPa 0,0 l/m 0,0 km/h (0 Bft) S-SW 209 1,8 C 2,4 C 0,0 km/h (0 Bft)
23.01.2020 09:38 22,0 C 2,4 C 32 % 97 % 1031,2 hPa 0,0 l/m 0,0 km/h (0 Bft) S-SW 209 2,0 C 2,4 C 0,0 km/h (0 Bft)
23.01.2020 09:36 22,0 C 2,4 C 32 % 97 % 1031,2 hPa 0,0 l/m 0,0 km/h (0 Bft) S-SW 209 2,0 C 2,4 C 0,0 km/h (0 Bft)
23.01.2020 09:34 22,0 C 2,4 C 32 % 97 % 1031,2 hPa 0,0 l/m 0,0 km/h (0 Bft) S-SW 209 2,0 C 2,4 C 0,0 km/h (0 Bft)
23.01.2020 09:32 22,0 C 2,4 C 32 % 96 % 1031,2 hPa 0,0 l/m 0,0 km/h (0 Bft) S-SW 209 1,8 C 2,4 C 0,0 km/h (0 Bft)
23.01.2020 09:30 22,0 C 2,4 C 32 % 97 % 1031,2 hPa 0,0 l/m 0,0 km/h (0 Bft) S-SW 209 2,0 C 2,4 C 0,0 km/h (0 Bft)
23.01.2020 09:28 22,0 C 2,4 C 32 % 97 % 1031,3 hPa 0,0 l/m 0,0 km/h (0 Bft) S-SW 209 2,0 C 2,4 C 0,0 km/h (0 Bft)
23.01.2020 09:26 22,0 C 2,3 C 32 % 96 % 1031,3 hPa 0,0 l/m 0,0 km/h (0 Bft) S-SW 209 1,7 C 2,3 C 0,0 km/h (0 Bft)
23.01.2020 09:24 22,0 C 2,3 C 32 % 96 % 1031,3 hPa 0,0 l/m 0,0 km/h (0 Bft) S-SW 209 1,7 C 2,3 C 0,0 km/h (0 Bft)
23.01.2020 09:22 22,0 C 2,3 C 32 % 96 % 1031,3 hPa 0,0 l/m 0,0 km/h (0 Bft) S-SW 209 1,7 C 2,3 C 0,0 km/h (0 Bft)
23.01.2020 09:20 22,0 C 2,3 C 32 % 96 % 1031,3 hPa 0,0 l/m 0,0 km/h (0 Bft) S-SW 209 1,7 C 2,3 C 0,0 km/h (0 Bft)
23.01.2020 09:18 22,0 C 2,3 C 32 % 97 % 1031,3 hPa 0,0 l/m 0,0 km/h (0 Bft) S-SW 209 1,9 C 2,3 C 1,6 km/h (1 Bft)
23.01.2020 09:16 22,0 C 2,3 C 32 % 97 % 1031,3 hPa 0,0 l/m 0,0 km/h (0 Bft) S-SW 209 1,9 C 2,3 C 1,6 km/h (1 Bft)
23.01.2020 09:14 22,0 C 2,3 C 32 % 97 % 1031,3 hPa 0,0 l/m 0,0 km/h (0 Bft) S-SW 209 1,9 C 2,3 C 0,0 km/h (0 Bft)
23.01.2020 09:12 22,0 C 2,3 C 32 % 97 % 1031,3 hPa 0,0 l/m 0,0 km/h (0 Bft) S-SW 209 1,9 C 2,3 C 0,0 km/h (0 Bft)
23.01.2020 09:10 22,0 C 2,2 C 32 % 97 % 1031,3 hPa 0,0 l/m 0,0 km/h (0 Bft) S-SW 209 1,8 C 2,2 C 0,0 km/h (0 Bft)
23.01.2020 09:08 22,0 C 2,2 C 32 % 97 % 1031,3 hPa 0,0 l/m 0,1 km/h (0 Bft) S-SW 209 1,8 C 2,2 C 1,6 km/h (1 Bft)
23.01.2020 09:06 22,0 C 2,2 C 32 % 96 % 1031,3 hPa 0,0 l/m 0,0 km/h (0 Bft) S-SW 209 1,6 C 2,2 C 0,0 km/h (0 Bft)
23.01.2020 09:04 22,0 C 2,2 C 32 % 97 % 1031,3 hPa 0,0 l/m 0,0 km/h (0 Bft) S-SW 209 1,8 C 2,2 C 0,0 km/h (0 Bft)
23.01.2020 09:02 22,0 C 2,2 C 32 % 97 % 1031,3 hPa 0,0 l/m 0,0 km/h (0 Bft) S-SW 209 1,8 C 2,2 C 0,0 km/h (0 Bft)
23.01.2020 09:00 22,0 C 2,2 C 32 % 97 % 1031,3 hPa 0,0 l/m 0,0 km/h (0 Bft) S-SW 209 1,8 C 2,2 C 0,0 km/h (0 Bft)
23.01.2020 08:58 22,0 C 2,2 C 32 % 97 % 1031,4 hPa 0,0 l/m 0,0 km/h (0 Bft) S-SW 209 1,8 C 2,2 C 0,0 km/h (0 Bft)
23.01.2020 08:56 22,0 C 2,2 C 32 % 97 % 1031,4 hPa 0,0 l/m 0,0 km/h (0 Bft) S-SW 209 1,8 C 2,2 C 0,0 km/h (0 Bft)
23.01.2020 08:54 22,0 C 2,2 C 32 % 97 % 1031,4 hPa 0,0 l/m 0,0 km/h (0 Bft) S-SW 209 1,8 C 2,2 C 0,0 km/h (0 Bft)
23.01.2020 08:52 22,0 C 2,2 C 32 % 97 % 1031,4 hPa 0,0 l/m 0,0 km/h (0 Bft) S-SW 209 1,8 C 2,2 C 0,0 km/h (0 Bft)
23.01.2020 08:50 22,0 C 2,2 C 32 % 97 % 1031,4 hPa 0,0 l/m 0,0 km/h (0 Bft) S-SW 209 1,8 C 2,2 C 0,0 km/h (0 Bft)
23.01.2020 08:48 22,0 C 2,2 C 32 % 97 % 1031,4 hPa 0,0 l/m 0,0 km/h (0 Bft) S-SW 209 1,8 C 2,2 C 0,0 km/h (0 Bft)
23.01.2020 08:46 22,0 C 2,2 C 32 % 97 % 1031,4 hPa 0,0 l/m 0,0 km/h (0 Bft) S-SW 209 1,8 C 2,2 C 0,0 km/h (0 Bft)
23.01.2020 08:44 22,0 C 2,2 C 32 % 97 % 1031,3 hPa 0,0 l/m 0,0 km/h (0 Bft) S-SW 209 1,8 C 2,2 C 0,0 km/h (0 Bft)
23.01.2020 08:42 22,0 C 2,2 C 32 % 97 % 1031,3 hPa 0,0 l/m 0,0 km/h (0 Bft) S-SW 209 1,8 C 2,2 C 0,0 km/h (0 Bft)
23.01.2020 08:40 22,0 C 2,2 C 32 % 97 % 1031,3 hPa 0,0 l/m 0,0 km/h (0 Bft) S-SW 209 1,8 C 2,2 C 0,0 km/h (0 Bft)
23.01.2020 08:38 22,0 C 2,2 C 32 % 97 % 1031,3 hPa 0,0 l/m 0,0 km/h (0 Bft) S-SW 209 1,8 C 2,2 C 0,0 km/h (0 Bft)
23.01.2020 08:36 22,0 C 2,2 C 32 % 97 % 1031,3 hPa 0,0 l/m 0,0 km/h (0 Bft) S-SW 209 1,8 C 2,2 C 0,0 km/h (0 Bft)
23.01.2020 08:34 22,0 C 2,2 C 32 % 97 % 1031,3 hPa 0,0 l/m 0,0 km/h (0 Bft) S-SW 209 1,8 C 2,2 C 0,0 km/h (0 Bft)
23.01.2020 08:32 22,0 C 2,2 C 32 % 97 % 1031,3 hPa 0,0 l/m 0,0 km/h (0 Bft) S-SW 209 1,8 C 2,2 C 0,0 km/h (0 Bft)
23.01.2020 08:30 22,0 C 2,2 C 32 % 97 % 1031,3 hPa 0,0 l/m 0,0 km/h (0 Bft) S-SW 209 1,8 C 2,2 C 0,0 km/h (0 Bft)
23.01.2020 08:28 21,9 C 2,2 C 32 % 97 % 1031,4 hPa 0,0 l/m 0,0 km/h (0 Bft) S-SW 209 1,8 C 2,2 C 0,0 km/h (0 Bft)
23.01.2020 08:26 21,9 C 2,2 C 32 % 97 % 1031,4 hPa 0,0 l/m 0,0 km/h (0 Bft) S-SW 209 1,8 C 2,2 C 0,0 km/h (0 Bft)
23.01.2020 08:24 21,9 C 2,2 C 32 % 97 % 1031,4 hPa 0,0 l/m 0,0 km/h (0 Bft) S-SW 209 1,8 C 2,2 C 0,0 km/h (0 Bft)
23.01.2020 08:22 21,9 C 2,2 C 32 % 96 % 1031,4 hPa 0,0 l/m 0,0 km/h (0 Bft) S-SW 209 1,6 C 2,2 C 0,0 km/h (0 Bft)
23.01.2020 08:20 21,9 C 2,2 C 32 % 96 % 1031,4 hPa 0,0 l/m 0,0 km/h (0 Bft) S-SW 209 1,6 C 2,2 C 0,0 km/h (0 Bft)
23.01.2020 08:18 21,9 C 2,2 C 32 % 96 % 1031,4 hPa 0,0 l/m 0,0 km/h (0 Bft) S-SW 209 1,6 C 2,2 C 0,0 km/h (0 Bft)
23.01.2020 08:16 21,9 C 2,2 C 32 % 96 % 1031,4 hPa 0,0 l/m 0,0 km/h (0 Bft) S-SW 209 1,6 C 2,2 C 0,0 km/h (0 Bft)
23.01.2020 08:14 21,9 C 2,2 C 32 % 96 % 1031,4 hPa 0,0 l/m 0,0 km/h (0 Bft) S-SW 209 1,6 C 2,2 C 0,0 km/h (0 Bft)
23.01.2020 08:12 21,9 C 2,1 C 32 % 96 % 1031,4 hPa 0,0 l/m 0,0 km/h (0 Bft) S-SW 209 1,5 C 2,1 C 0,0 km/h (0 Bft)
23.01.2020 08:10 21,9 C 2,1 C 32 % 96 % 1031,4 hPa 0,0 l/m 0,0 km/h (0 Bft) S-SW 209 1,5 C 2,1 C 0,0 km/h (0 Bft)
23.01.2020 08:08 21,9 C 2,1 C 32 % 96 % 1031,4 hPa 0,0 l/m 0,0 km/h (0 Bft) S-SW 209 1,5 C 2,1 C 0,0 km/h (0 Bft)
23.01.2020 08:06 21,9 C 2,1 C 32 % 96 % 1031,4 hPa 0,0 l/m 0,0 km/h (0 Bft) S-SW 209 1,5 C 2,1 C 0,0 km/h (0 Bft)
23.01.2020 08:04 21,9 C 2,1 C 32 % 96 % 1031,4 hPa 0,0 l/m 0,0 km/h (0 Bft) S-SW 209 1,5 C 2,1 C 0,0 km/h (0 Bft)
23.01.2020 08:02 21,9 C 2,1 C 32 % 96 % 1031,4 hPa 0,0 l/m 0,0 km/h (0 Bft) S-SW 209 1,5 C 2,1 C 0,0 km/h (0 Bft)
23.01.2020 08:00 21,9 C 2,1 C 32 % 96 % 1031,4 hPa 0,0 l/m 0,0 km/h (0 Bft) S-SW 209 1,5 C 2,1 C 0,0 km/h (0 Bft)
23.01.2020 07:59 21,9 C 2,1 C 32 % 96 % 1031,4 hPa 0,0 l/m 0,0 km/h (0 Bft) S-SW 209 1,5 C 2,1 C 0,0 km/h (0 Bft)
23.01.2020 07:56 21,9 C 2,1 C 32 % 96 % 1031,3 hPa 0,0 l/m 0,0 km/h (0 Bft) S-SW 209 1,5 C 2,1 C 0,0 km/h (0 Bft)
23.01.2020 07:54 21,9 C 2,1 C 32 % 96 % 1031,3 hPa 0,0 l/m 0,0 km/h (0 Bft) S-SW 209 1,5 C 2,1 C 0,0 km/h (0 Bft)
23.01.2020 07:52 21,9 C 2,1 C 32 % 96 % 1031,3 hPa 0,0 l/m 0,0 km/h (0 Bft) S-SW 209 1,5 C 2,1 C 0,0 km/h (0 Bft)
23.01.2020 07:50 21,9 C 2,1 C 32 % 96 % 1031,3 hPa 0,0 l/m 0,0 km/h (0 Bft) S-SW 209 1,5 C 2,1 C 0,0 km/h (0 Bft)
23.01.2020 07:48 21,9 C 2,1 C 32 % 96 % 1031,3 hPa 0,0 l/m 0,0 km/h (0 Bft) S-SW 209 1,5 C 2,1 C 0,0 km/h (0 Bft)
23.01.2020 07:46 21,9 C 2,0 C 32 % 96 % 1031,3 hPa 0,0 l/m 0,0 km/h (0 Bft) S-SW 209 1,4 C 2,0 C 0,0 km/h (0 Bft)
23.01.2020 07:44 21,9 C 2,0 C 32 % 96 % 1031,4 hPa 0,0 l/m 0,0 km/h (0 Bft) S-SW 209 1,4 C 2,0 C 0,0 km/h (0 Bft)
23.01.2020 07:42 21,8 C 2,0 C 32 % 96 % 1031,4 hPa 0,0 l/m 0,0 km/h (0 Bft) S-SW 209 1,4 C 2,0 C 0,0 km/h (0 Bft)
23.01.2020 07:40 21,8 C 2,0 C 32 % 96 % 1031,4 hPa 0,0 l/m 0,0 km/h (0 Bft) S-SW 209 1,4 C 2,0 C 0,0 km/h (0 Bft)
23.01.2020 07:38 21,8 C 2,0 C 32 % 96 % 1031,4 hPa 0,0 l/m 0,0 km/h (0 Bft) S-SW 209 1,4 C 2,0 C 0,0 km/h (0 Bft)
23.01.2020 07:36 21,8 C 2,0 C 32 % 96 % 1031,4 hPa 0,0 l/m 0,0 km/h (0 Bft) S-SW 209 1,4 C 2,0 C 0,0 km/h (0 Bft)
23.01.2020 07:34 21,8 C 2,0 C 32 % 96 % 1031,4 hPa 0,0 l/m 0,0 km/h (0 Bft) S-SW 209 1,4 C 2,0 C 0,0 km/h (0 Bft)
23.01.2020 07:32 21,8 C 2,0 C 32 % 96 % 1031,4 hPa 0,0 l/m 0,0 km/h (0 Bft) S-SW 209 1,4 C 2,0 C 0,0 km/h (0 Bft)
23.01.2020 07:30 21,8 C 2,0 C 32 % 96 % 1031,4 hPa 0,0 l/m 0,0 km/h (0 Bft) S-SW 209 1,4 C 2,0 C 0,0 km/h (0 Bft)
23.01.2020 07:28 21,8 C 1,9 C 32 % 96 % 1031,6 hPa 0,0 l/m 0,0 km/h (0 Bft) S-SW 209 1,3 C 1,9 C 0,0 km/h (0 Bft)
23.01.2020 07:26 21,8 C 1,9 C 32 % 96 % 1031,6 hPa 0,0 l/m 0,0 km/h (0 Bft) S-SW 209 1,3 C 1,9 C 0,0 km/h (0 Bft)
23.01.2020 07:24 21,8 C 1,9 C 32 % 96 % 1031,6 hPa 0,0 l/m 0,0 km/h (0 Bft) S-SW 209 1,3 C 1,9 C 0,0 km/h (0 Bft)
23.01.2020 07:22 21,8 C 1,9 C 32 % 96 % 1031,6 hPa 0,0 l/m 0,0 km/h (0 Bft) S-SW 209 1,3 C 1,9 C 0,0 km/h (0 Bft)
23.01.2020 07:20 21,8 C 1,9 C 32 % 96 % 1031,6 hPa 0,0 l/m 0,0 km/h (0 Bft) S-SW 209 1,3 C 1,9 C 0,0 km/h (0 Bft)
23.01.2020 07:18 21,8 C 1,9 C 32 % 96 % 1031,6 hPa 0,0 l/m 0,0 km/h (0 Bft) S-SW 209 1,3 C 1,9 C 1,6 km/h (1 Bft)
23.01.2020 07:16 21,8 C 1,9 C 32 % 96 % 1031,6 hPa 0,0 l/m 0,0 km/h (0 Bft) S-SW 209 1,3 C 1,9 C 0,0 km/h (0 Bft)
23.01.2020 07:14 21,8 C 1,9 C 32 % 96 % 1031,8 hPa 0,0 l/m 0,0 km/h (0 Bft) S-SW 209 1,3 C 1,9 C 0,0 km/h (0 Bft)
23.01.2020 07:12 21,8 C 1,9 C 32 % 96 % 1031,8 hPa 0,0 l/m 0,0 km/h (0 Bft) S-SW 209 1,3 C 1,9 C 0,0 km/h (0 Bft)
23.01.2020 07:10 21,7 C 1,9 C 32 % 96 % 1031,8 hPa 0,0 l/m 0,0 km/h (0 Bft) S-SW 209 1,3 C 1,9 C 0,0 km/h (0 Bft)
23.01.2020 07:08 21,7 C 1,9 C 32 % 96 % 1031,8 hPa 0,0 l/m 0,0 km/h (0 Bft) S-SW 209 1,3 C 1,9 C 0,0 km/h (0 Bft)
23.01.2020 07:07 21,7 C 1,9 C 32 % 96 % 1031,8 hPa 0,0 l/m 0,0 km/h (0 Bft) S-SW 209 1,3 C 1,9 C 0,0 km/h (0 Bft)
23.01.2020 07:04 21,7 C 1,9 C 32 % 96 % 1031,8 hPa 0,0 l/m 0,0 km/h (0 Bft) S-SW 209 1,3 C 1,9 C 0,0 km/h (0 Bft)
23.01.2020 07:02 21,7 C 1,9 C 32 % 96 % 1031,8 hPa 0,0 l/m 0,0 km/h (0 Bft) S-SW 209 1,3 C 1,9 C 0,0 km/h (0 Bft)
23.01.2020 07:00 21,7 C 1,9 C 32 % 96 % 1031,8 hPa 0,0 l/m 0,0 km/h (0 Bft) S-SW 209 1,3 C 1,9 C 0,0 km/h (0 Bft)
23.01.2020 06:58 21,7 C 1,9 C 32 % 96 % 1031,9 hPa 0,0 l/m 0,0 km/h (0 Bft) S-SW 209 1,3 C 1,9 C 0,0 km/h (0 Bft)
23.01.2020 06:57 21,7 C 1,9 C 32 % 96 % 1031,9 hPa 0,0 l/m 0,0 km/h (0 Bft) S-SW 209 1,3 C 1,9 C 0,0 km/h (0 Bft)
23.01.2020 06:54 21,7 C 1,9 C 32 % 96 % 1031,9 hPa 0,0 l/m 0,0 km/h (0 Bft) S-SW 209 1,3 C 1,9 C 0,0 km/h (0 Bft)
23.01.2020 06:52 21,7 C 1,9 C 32 % 96 % 1031,9 hPa 0,0 l/m 0,0 km/h (0 Bft) S-SW 209 1,3 C 1,9 C 0,0 km/h (0 Bft)
23.01.2020 06:50 21,7 C 1,9 C 32 % 96 % 1031,9 hPa 0,0 l/m 0,0 km/h (0 Bft) S-SW 209 1,3 C 1,9 C 0,0 km/h (0 Bft)
23.01.2020 06:48 21,7 C 1,9 C 32 % 96 % 1031,9 hPa 0,0 l/m 0,0 km/h (0 Bft) S-SW 209 1,3 C 1,9 C 0,0 km/h (0 Bft)
23.01.2020 06:46 21,7 C 1,9 C 31 % 96 % 1031,9 hPa 0,0 l/m 0,0 km/h (0 Bft) S-SW 209 1,3 C 1,9 C 0,0 km/h (0 Bft)
23.01.2020 06:44 21,7 C 1,9 C 31 % 96 % 1031,8 hPa 0,0 l/m 0,0 km/h (0 Bft) S-SW 209 1,3 C 1,9 C 0,0 km/h (0 Bft)
23.01.2020 06:42 21,7 C 1,9 C 31 % 96 % 1031,8 hPa 0,0 l/m 0,0 km/h (0 Bft) S-SW 209 1,3 C 1,9 C 0,0 km/h (0 Bft)
23.01.2020 06:40 21,7 C 1,9 C 33 % 96 % 1031,8 hPa 0,0 l/m 0,0 km/h (0 Bft) S-SW 209 1,3 C 1,9 C 0,0 km/h (0 Bft)
23.01.2020 06:38 21,7 C 1,9 C 31 % 96 % 1031,8 hPa 0,0 l/m 0,0 km/h (0 Bft) S-SW 209 1,3 C 1,9 C 0,0 km/h (0 Bft)
23.01.2020 06:37 21,7 C 1,9 C 31 % 96 % 1031,8 hPa 0,0 l/m 0,0 km/h (0 Bft) S-SW 209 1,3 C 1,9 C 0,0 km/h (0 Bft)
23.01.2020 06:34 21,6 C 1,9 C 32 % 96 % 1031,8 hPa 0,0 l/m 0,0 km/h (0 Bft) S-SW 209 1,3 C 1,9 C 0,0 km/h (0 Bft)
23.01.2020 06:32 21,6 C 2,0 C 31 % 96 % 1031,8 hPa 0,0 l/m 0,0 km/h (0 Bft) S-SW 209 1,4 C 2,0 C 0,0 km/h (0 Bft)
23.01.2020 06:30 21,6 C 2,0 C 31 % 96 % 1031,8 hPa 0,0 l/m 0,0 km/h (0 Bft) S-SW 209 1,4 C 2,0 C 0,0 km/h (0 Bft)
23.01.2020 06:28 21,6 C 2,0 C 31 % 96 % 1031,9 hPa 0,0 l/m 0,0 km/h (0 Bft) S-SW 209 1,4 C 2,0 C 0,0 km/h (0 Bft)
23.01.2020 06:26 21,6 C 2,0 C 31 % 96 % 1031,9 hPa 0,0 l/m 0,0 km/h (0 Bft) S-SW 209 1,4 C 2,0 C 0,0 km/h (0 Bft)
23.01.2020 06:24 21,6 C 2,0 C 31 % 96 % 1031,9 hPa 0,0 l/m 0,0 km/h (0 Bft) S-SW 209 1,4 C 2,0 C 0,0 km/h (0 Bft)
23.01.2020 06:22 21,6 C 2,0 C 31 % 96 % 1031,9 hPa 0,0 l/m 0,0 km/h (0 Bft) S-SW 209 1,4 C 2,0 C 0,0 km/h (0 Bft)
23.01.2020 06:20 21,6 C 2,0 C 31 % 96 % 1031,9 hPa 0,0 l/m 0,0 km/h (0 Bft) S-SW 209 1,4 C 2,0 C 0,0 km/h (0 Bft)
23.01.2020 06:18 21,6 C 2,0 C 31 % 96 % 1031,9 hPa 0,0 l/m 0,0 km/h (0 Bft) S-SW 209 1,4 C 2,0 C 0,0 km/h (0 Bft)
23.01.2020 06:16 21,6 C 1,9 C 31 % 96 % 1031,9 hPa 0,0 l/m 0,0 km/h (0 Bft) S-SW 209 1,3 C 1,9 C 0,0 km/h (0 Bft)
23.01.2020 06:14 21,6 C 1,9 C 31 % 96 % 1031,9 hPa 0,0 l/m 0,0 km/h (0 Bft) S-SW 209 1,3 C 1,9 C 0,0 km/h (0 Bft)
23.01.2020 06:12 21,6 C 1,9 C 31 % 96 % 1031,9 hPa 0,0 l/m 0,0 km/h (0 Bft) S-SW 209 1,3 C 1,9 C 0,0 km/h (0 Bft)
23.01.2020 06:10 21,6 C 1,9 C 31 % 96 % 1031,9 hPa 0,0 l/m 0,0 km/h (0 Bft) S-SW 209 1,3 C 1,9 C 0,0 km/h (0 Bft)
23.01.2020 06:08 21,5 C 1,9 C 31 % 96 % 1031,9 hPa 0,0 l/m 0,0 km/h (0 Bft) S-SW 209 1,3 C 1,9 C 0,0 km/h (0 Bft)
23.01.2020 06:06 21,5 C 1,9 C 31 % 96 % 1031,9 hPa 0,0 l/m 0,0 km/h (0 Bft) S-SW 209 1,3 C 1,9 C 0,0 km/h (0 Bft)
23.01.2020 06:04 21,5 C 1,9 C 31 % 96 % 1031,9 hPa 0,0 l/m 0,0 km/h (0 Bft) S-SW 209 1,3 C 1,9 C 0,0 km/h (0 Bft)
23.01.2020 06:02 21,5 C 1,9 C 31 % 96 % 1031,9 hPa 0,0 l/m 0,0 km/h (0 Bft) S-SW 209 1,3 C 1,9 C 0,0 km/h (0 Bft)
23.01.2020 06:00 21,5 C 1,9 C 31 % 96 % 1031,9 hPa 0,0 l/m 0,0 km/h (0 Bft) S-SW 209 1,3 C 1,9 C 0,0 km/h (0 Bft)
23.01.2020 05:58 21,5 C 1,9 C 31 % 96 % 1032,1 hPa 0,0 l/m 0,0 km/h (0 Bft) S-SW 209 1,3 C 1,9 C 0,0 km/h (0 Bft)
23.01.2020 05:56 21,5 C 1,9 C 31 % 96 % 1032,1 hPa 0,0 l/m 0,0 km/h (0 Bft) S-SW 209 1,3 C 1,9 C 0,0 km/h (0 Bft)
23.01.2020 05:54 21,5 C 1,9 C 31 % 96 % 1032,1 hPa 0,0 l/m 0,0 km/h (0 Bft) S-SW 209 1,3 C 1,9 C 0,0 km/h (0 Bft)
23.01.2020 05:52 21,5 C 1,9 C 31 % 96 % 1032,1 hPa 0,0 l/m 0,0 km/h (0 Bft) S-SW 209 1,3 C 1,9 C 0,0 km/h (0 Bft)
23.01.2020 05:50 21,5 C 1,9 C 31 % 96 % 1032,1 hPa 0,0 l/m 0,0 km/h (0 Bft) S-SW 209 1,3 C 1,9 C 0,0 km/h (0 Bft)
23.01.2020 05:48 21,5 C 1,9 C 31 % 96 % 1032,1 hPa 0,0 l/m 0,0 km/h (0 Bft) S-SW 209 1,3 C 1,9 C 0,0 km/h (0 Bft)
23.01.2020 05:46 21,5 C 1,9 C 31 % 96 % 1032,1 hPa 0,0 l/m 0,0 km/h (0 Bft) S-SW 209 1,3 C 1,9 C 0,0 km/h (0 Bft)
23.01.2020 05:44 21,5 C 2,0 C 31 % 96 % 1032,3 hPa 0,0 l/m 0,0 km/h (0 Bft) S-SW 209 1,4 C 2,0 C 0,0 km/h (0 Bft)
23.01.2020 05:42 21,5 C 2,0 C 31 % 96 % 1032,3 hPa 0,0 l/m 0,0 km/h (0 Bft) S-SW 209 1,4 C 2,0 C 0,0 km/h (0 Bft)
23.01.2020 05:40 21,5 C 1,9 C 31 % 96 % 1032,3 hPa 0,0 l/m 0,0 km/h (0 Bft) S-SW 209 1,3 C 1,9 C 0,0 km/h (0 Bft)
23.01.2020 05:38 21,5 C 1,9 C 31 % 96 % 1032,3 hPa 0,0 l/m 0,0 km/h (0 Bft) S-SW 209 1,3 C 1,9 C 0,0 km/h (0 Bft)
23.01.2020 05:36 21,5 C 2,0 C 31 % 96 % 1032,3 hPa 0,0 l/m 0,0 km/h (0 Bft) S-SW 209 1,4 C 2,0 C 0,0 km/h (0 Bft)
23.01.2020 05:34 21,5 C 2,0 C 31 % 96 % 1032,3 hPa 0,0 l/m 0,0 km/h (0 Bft) S-SW 209 1,4 C 2,0 C 0,0 km/h (0 Bft)
23.01.2020 05:32 21,5 C 2,0 C 31 % 96 % 1032,3 hPa 0,0 l/m 0,0 km/h (0 Bft) S-SW 209 1,4 C 2,0 C 0,0 km/h (0 Bft)
23.01.2020 05:30 21,5 C 2,0 C 31 % 96 % 1032,3 hPa 0,0 l/m 0,0 km/h (0 Bft) S-SW 209 1,4 C 2,0 C 0,0 km/h (0 Bft)
23.01.2020 05:28 21,4 C 2,0 C 31 % 96 % 1032,3 hPa 0,0 l/m 0,0 km/h (0 Bft) S-SW 209 1,4 C 2,0 C 0,0 km/h (0 Bft)
23.01.2020 05:26 21,4 C 2,0 C 31 % 96 % 1032,3 hPa 0,0 l/m 0,0 km/h (0 Bft) S-SW 209 1,4 C 2,0 C 0,0 km/h (0 Bft)
23.01.2020 05:24 21,4 C 2,0 C 31 % 96 % 1032,3 hPa 0,0 l/m 0,0 km/h (0 Bft) S-SW 209 1,4 C 2,0 C 0,0 km/h (0 Bft)
23.01.2020 05:22 21,4 C 2,0 C 31 % 96 % 1032,3 hPa 0,0 l/m 0,0 km/h (0 Bft) S-SW 209 1,4 C 2,0 C 0,0 km/h (0 Bft)
23.01.2020 05:20 21,4 C 2,0 C 31 % 96 % 1032,3 hPa 0,0 l/m 0,0 km/h (0 Bft) S-SW 209 1,4 C 2,0 C 0,0 km/h (0 Bft)
23.01.2020 05:18 21,4 C 2,0 C 31 % 96 % 1032,3 hPa 0,0 l/m 0,0 km/h (0 Bft) S-SW 209 1,4 C 2,0 C 0,0 km/h (0 Bft)
23.01.2020 05:16 21,4 C 2,0 C 31 % 96 % 1032,3 hPa 0,0 l/m 0,0 km/h (0 Bft) S-SW 209 1,4 C 2,0 C 0,0 km/h (0 Bft)
23.01.2020 05:14 21,4 C 2,0 C 31 % 96 % 1032,3 hPa 0,0 l/m 0,0 km/h (0 Bft) S-SW 209 1,4 C 2,0 C 0,0 km/h (0 Bft)
23.01.2020 05:12 21,4 C 2,0 C 31 % 96 % 1032,3 hPa 0,0 l/m 0,0 km/h (0 Bft) S-SW 209 1,4 C 2,0 C 0,0 km/h (0 Bft)
23.01.2020 05:10 21,4 C 2,0 C 31 % 96 % 1032,3 hPa 0,0 l/m 0,0 km/h (0 Bft) S-SW 209 1,4 C 2,0 C 0,0 km/h (0 Bft)
23.01.2020 05:08 21,4 C 2,0 C 31 % 96 % 1032,3 hPa 0,0 l/m 0,0 km/h (0 Bft) S-SW 209 1,4 C 2,0 C 0,0 km/h (0 Bft)
23.01.2020 05:06 21,4 C 2,0 C 31 % 96 % 1032,3 hPa 0,0 l/m 0,0 km/h (0 Bft) S-SW 209 1,4 C 2,0 C 0,0 km/h (0 Bft)
23.01.2020 05:04 21,4 C 2,0 C 31 % 96 % 1032,3 hPa 0,0 l/m 0,0 km/h (0 Bft) S-SW 209 1,4 C 2,0 C 0,0 km/h (0 Bft)
23.01.2020 05:02 21,4 C 2,0 C 31 % 96 % 1032,3 hPa 0,0 l/m 0,0 km/h (0 Bft) S-SW 209 1,4 C 2,0 C 0,0 km/h (0 Bft)
23.01.2020 05:00 21,4 C 2,0 C 30 % 96 % 1032,3 hPa 0,0 l/m 0,0 km/h (0 Bft) S-SW 209 1,4 C 2,0 C 0,0 km/h (0 Bft)
23.01.2020 04:58 21,4 C 2,0 C 31 % 96 % 1032,4 hPa 0,0 l/m 0,0 km/h (0 Bft) S-SW 209 1,4 C 2,0 C 0,0 km/h (0 Bft)
23.01.2020 04:56 21,4 C 2,0 C 30 % 96 % 1032,4 hPa 0,0 l/m 0,0 km/h (0 Bft) S-SW 209 1,4 C 2,0 C 0,0 km/h (0 Bft)
23.01.2020 04:54 21,4 C 2,0 C 30 % 96 % 1032,4 hPa 0,0 l/m 0,0 km/h (0 Bft) S-SW 209 1,4 C 2,0 C 0,0 km/h (0 Bft)
23.01.2020 04:52 21,4 C 2,0 C 30 % 96 % 1032,4 hPa 0,0 l/m 0,0 km/h (0 Bft) S-SW 209 1,4 C 2,0 C 0,0 km/h (0 Bft)
23.01.2020 04:50 21,4 C 2,0 C 30 % 96 % 1032,4 hPa 0,0 l/m 0,0 km/h (0 Bft) S-SW 209 1,4 C 2,0 C 0,0 km/h (0 Bft)
23.01.2020 04:48 21,4 C 2,0 C 30 % 96 % 1032,4 hPa 0,0 l/m 0,0 km/h (0 Bft) S-SW 209 1,4 C 2,0 C 0,0 km/h (0 Bft)
23.01.2020 04:46 21,4 C 1,9 C 30 % 96 % 1032,4 hPa 0,0 l/m 0,0 km/h (0 Bft) S-SW 209 1,3 C 1,9 C 0,0 km/h (0 Bft)
23.01.2020 04:44 21,4 C 1,9 C 30 % 96 % 1032,6 hPa 0,0 l/m 0,0 km/h (0 Bft) S-SW 209 1,3 C 1,9 C 0,0 km/h (0 Bft)
23.01.2020 04:42 21,4 C 1,9 C 30 % 96 % 1032,6 hPa 0,0 l/m 0,0 km/h (0 Bft) S-SW 209 1,3 C 1,9 C 0,0 km/h (0 Bft)
23.01.2020 04:40 21,4 C 1,9 C 31 % 96 % 1032,6 hPa 0,0 l/m 0,0 km/h (0 Bft) S-SW 209 1,3 C 1,9 C 0,0 km/h (0 Bft)
23.01.2020 04:38 21,4 C 2,0 C 30 % 96 % 1032,6 hPa 0,0 l/m 0,0 km/h (0 Bft) S-SW 209 1,4 C 2,0 C 0,0 km/h (0 Bft)
23.01.2020 04:36 21,4 C 1,9 C 30 % 96 % 1032,6 hPa 0,0 l/m 0,0 km/h (0 Bft) S-SW 209 1,3 C 1,9 C 0,0 km/h (0 Bft)
23.01.2020 04:34 21,4 C 1,9 C 30 % 96 % 1032,6 hPa 0,0 l/m 0,0 km/h (0 Bft) S-SW 209 1,3 C 1,9 C 0,0 km/h (0 Bft)
23.01.2020 04:32 21,5 C 1,9 C 30 % 96 % 1032,6 hPa 0,0 l/m 0,0 km/h (0 Bft) S-SW 209 1,3 C 1,9 C 0,0 km/h (0 Bft)
23.01.2020 04:30 21,5 C 1,9 C 31 % 96 % 1032,6 hPa 0,0 l/m 0,0 km/h (0 Bft) S-SW 209 1,3 C 1,9 C 0,0 km/h (0 Bft)
23.01.2020 04:28 21,5 C 1,9 C 30 % 96 % 1032,8 hPa 0,0 l/m 0,0 km/h (0 Bft) S-SW 209 1,3 C 1,9 C 0,0 km/h (0 Bft)
23.01.2020 04:26 21,5 C 1,9 C 31 % 96 % 1032,8 hPa 0,0 l/m 0,0 km/h (0 Bft) S-SW 209 1,3 C 1,9 C 0,0 km/h (0 Bft)
23.01.2020 04:24 21,5 C 1,9 C 31 % 96 % 1032,8 hPa 0,0 l/m 0,0 km/h (0 Bft) S-SW 209 1,3 C 1,9 C 0,0 km/h (0 Bft)
23.01.2020 04:22 21,5 C 1,9 C 31 % 96 % 1032,8 hPa 0,0 l/m 0,0 km/h (0 Bft) S-SW 209 1,3 C 1,9 C 0,0 km/h (0 Bft)
23.01.2020 04:20 21,5 C 1,9 C 30 % 96 % 1032,8 hPa 0,0 l/m 0,0 km/h (0 Bft) S-SW 209 1,3 C 1,9 C 0,0 km/h (0 Bft)
23.01.2020 04:18 21,5 C 1,9 C 30 % 96 % 1032,8 hPa 0,0 l/m 0,0 km/h (0 Bft) S-SW 209 1,3 C 1,9 C 0,0 km/h (0 Bft)
23.01.2020 04:16 21,5 C 1,9 C 30 % 96 % 1032,8 hPa 0,0 l/m 0,0 km/h (0 Bft) S-SW 209 1,3 C 1,9 C 0,0 km/h (0 Bft)
23.01.2020 04:14 21,5 C 1,9 C 31 % 96 % 1032,8 hPa 0,0 l/m 0,0 km/h (0 Bft) S-SW 209 1,3 C 1,9 C 0,0 km/h (0 Bft)
23.01.2020 04:12 21,5 C 1,9 C 30 % 96 % 1032,8 hPa 0,0 l/m 0,0 km/h (0 Bft) S-SW 209 1,3 C 1,9 C 0,0 km/h (0 Bft)
23.01.2020 04:10 21,5 C 2,0 C 30 % 96 % 1032,8 hPa 0,0 l/m 0,0 km/h (0 Bft) S-SW 209 1,4 C 2,0 C 0,0 km/h (0 Bft)
23.01.2020 04:08 21,5 C 1,9 C 30 % 96 % 1032,8 hPa 0,0 l/m 0,0 km/h (0 Bft) S-SW 209 1,3 C 1,9 C 0,0 km/h (0 Bft)
23.01.2020 04:06 21,5 C 1,9 C 30 % 96 % 1032,8 hPa 0,0 l/m 0,0 km/h (0 Bft) S-SW 209 1,3 C 1,9 C 0,0 km/h (0 Bft)
23.01.2020 04:04 21,5 C 1,9 C 30 % 96 % 1032,8 hPa 0,0 l/m 0,0 km/h (0 Bft) S-SW 209 1,3 C 1,9 C 0,0 km/h (0 Bft)
23.01.2020 04:02 21,5 C 1,9 C 30 % 96 % 1032,8 hPa 0,0 l/m 0,0 km/h (0 Bft) S-SW 209 1,3 C 1,9 C 1,6 km/h (1 Bft)
23.01.2020 04:00 21,5 C 1,9 C 30 % 96 % 1032,8 hPa 0,0 l/m 0,0 km/h (0 Bft) S-SW 209 1,3 C 1,9 C 0,0 km/h (0 Bft)
23.01.2020 03:58 21,5 C 1,9 C 30 % 96 % 1032,8 hPa 0,0 l/m 0,0 km/h (0 Bft) S-SW 209 1,3 C 1,9 C 0,0 km/h (0 Bft)
23.01.2020 03:56 21,5 C 1,9 C 30 % 96 % 1032,8 hPa 0,0 l/m 0,0 km/h (0 Bft) S-SW 209 1,3 C 1,9 C 0,0 km/h (0 Bft)
23.01.2020 03:54 21,5 C 1,9 C 30 % 96 % 1032,8 hPa 0,0 l/m 0,0 km/h (0 Bft) S-SW 209 1,3 C 1,9 C 0,0 km/h (0 Bft)
23.01.2020 03:52 21,5 C 1,9 C 30 % 96 % 1032,8 hPa 0,0 l/m 0,0 km/h (0 Bft) S-SW 209 1,3 C 1,9 C 0,0 km/h (0 Bft)
23.01.2020 03:50 21,5 C 1,9 C 30 % 96 % 1032,8 hPa 0,0 l/m 0,0 km/h (0 Bft) S-SW 209 1,3 C 1,9 C 0,0 km/h (0 Bft)
23.01.2020 03:48 21,5 C 1,9 C 30 % 96 % 1032,8 hPa 0,0 l/m 0,0 km/h (0 Bft) S-SW 209 1,3 C 1,9 C 0,0 km/h (0 Bft)
23.01.2020 03:46 21,5 C 1,9 C 31 % 96 % 1032,8 hPa 0,0 l/m 0,0 km/h (0 Bft) S-SW 209 1,3 C 1,9 C 0,0 km/h (0 Bft)
23.01.2020 03:44 21,5 C 1,9 C 30 % 96 % 1033,1 hPa 0,0 l/m 0,0 km/h (0 Bft) S-SW 209 1,3 C 1,9 C 0,0 km/h (0 Bft)
23.01.2020 03:42 21,5 C 1,9 C 30 % 96 % 1033,1 hPa 0,0 l/m 0,0 km/h (0 Bft) S-SW 209 1,3 C 1,9 C 0,0 km/h (0 Bft)
23.01.2020 03:40 21,5 C 1,9 C 31 % 96 % 1033,1 hPa 0,0 l/m 0,0 km/h (0 Bft) S-SW 209 1,3 C 1,9 C 0,0 km/h (0 Bft)
23.01.2020 03:38 21,5 C 1,9 C 30 % 96 % 1033,1 hPa 0,0 l/m 0,0 km/h (0 Bft) S-SW 209 1,3 C 1,9 C 0,0 km/h (0 Bft)
23.01.2020 03:36 21,5 C 1,9 C 31 % 96 % 1033,1 hPa 0,0 l/m 0,0 km/h (0 Bft) S-SW 209 1,3 C 1,9 C 0,0 km/h (0 Bft)
23.01.2020 03:34 21,6 C 1,9 C 30 % 96 % 1033,1 hPa 0,0 l/m 0,0 km/h (0 Bft) S-SW 209 1,3 C 1,9 C 0,0 km/h (0 Bft)
23.01.2020 03:32 21,6 C 1,9 C 30 % 96 % 1033,1 hPa 0,0 l/m 0,0 km/h (0 Bft) S-SW 209 1,3 C 1,9 C 0,0 km/h (0 Bft)
23.01.2020 03:30 21,6 C 1,9 C 30 % 96 % 1033,1 hPa 0,0 l/m 0,0 km/h (0 Bft) S-SW 209 1,3 C 1,9 C 0,0 km/h (0 Bft)
23.01.2020 03:28 21,6 C 1,9 C 30 % 96 % 1033,1 hPa 0,0 l/m 0,0 km/h (0 Bft) S-SW 209 1,3 C 1,9 C 0,0 km/h (0 Bft)
23.01.2020 03:26 21,6 C 1,9 C 30 % 96 % 1033,1 hPa 0,0 l/m 0,0 km/h (0 Bft) S-SW 209 1,3 C 1,9 C 0,0 km/h (0 Bft)
23.01.2020 03:24 21,6 C 1,9 C 31 % 96 % 1033,1 hPa 0,0 l/m 0,0 km/h (0 Bft) S-SW 209 1,3 C 1,9 C 0,0 km/h (0 Bft)
23.01.2020 03:22 21,6 C 1,9 C 30 % 96 % 1033,1 hPa 0,0 l/m 0,0 km/h (0 Bft) S-SW 209 1,3 C 1,9 C 0,0 km/h (0 Bft)
23.01.2020 03:20 21,6 C 1,9 C 30 % 96 % 1033,1 hPa 0,0 l/m 0,0 km/h (0 Bft) S-SW 209 1,3 C 1,9 C 0,0 km/h (0 Bft)
23.01.2020 03:18 21,6 C 1,9 C 31 % 96 % 1033,1 hPa 0,0 l/m 0,0 km/h (0 Bft) S-SW 209 1,3 C 1,9 C 0,0 km/h (0 Bft)
23.01.2020 03:16 21,6 C 1,9 C 30 % 96 % 1033,1 hPa 0,0 l/m 0,0 km/h (0 Bft) S-SW 209 1,3 C 1,9 C 0,0 km/h (0 Bft)
23.01.2020 03:14 21,6 C 1,9 C 30 % 96 % 1033,4 hPa 0,0 l/m 0,0 km/h (0 Bft) S-SW 209 1,3 C 1,9 C 0,0 km/h (0 Bft)
23.01.2020 03:12 21,6 C 1,9 C 30 % 96 % 1033,4 hPa 0,0 l/m 0,0 km/h (0 Bft) S-SW 209 1,3 C 1,9 C 0,0 km/h (0 Bft)
23.01.2020 03:10 21,6 C 1,9 C 30 % 96 % 1033,4 hPa 0,0 l/m 0,0 km/h (0 Bft) S-SW 209 1,3 C 1,9 C 0,0 km/h (0 Bft)
23.01.2020 03:08 21,6 C 1,9 C 30 % 96 % 1033,4 hPa 0,0 l/m 0,0 km/h (0 Bft) S-SW 209 1,3 C 1,9 C 0,0 km/h (0 Bft)
23.01.2020 03:06 21,6 C 2,0 C 31 % 96 % 1033,4 hPa 0,0 l/m 0,0 km/h (0 Bft) S-SW 209 1,4 C 2,0 C 0,0 km/h (0 Bft)
23.01.2020 03:04 21,6 C 1,9 C 30 % 96 % 1033,4 hPa 0,0 l/m 0,0 km/h (0 Bft) S-SW 209 1,3 C 1,9 C 0,0 km/h (0 Bft)
23.01.2020 03:02 21,6 C 2,0 C 31 % 96 % 1033,4 hPa 0,0 l/m 0,0 km/h (0 Bft) S-SW 209 1,4 C 2,0 C 0,0 km/h (0 Bft)
23.01.2020 03:00 21,6 C 2,0 C 30 % 96 % 1033,4 hPa 0,0 l/m 0,0 km/h (0 Bft) S-SW 209 1,4 C 2,0 C 0,0 km/h (0 Bft)
23.01.2020 02:58 21,6 C 2,0 C 30 % 96 % 1033,4 hPa 0,0 l/m 0,0 km/h (0 Bft) S-SW 209 1,4 C 2,0 C 0,0 km/h (0 Bft)
23.01.2020 02:56 21,6 C 1,9 C 31 % 96 % 1033,4 hPa 0,0 l/m 0,0 km/h (0 Bft) S-SW 209 1,3 C 1,9 C 0,0 km/h (0 Bft)
23.01.2020 02:54 21,6 C 2,0 C 30 % 96 % 1033,4 hPa 0,0 l/m 0,0 km/h (0 Bft) S-SW 209 1,4 C 2,0 C 0,0 km/h (0 Bft)
23.01.2020 02:52 21,6 C 2,0 C 30 % 96 % 1033,4 hPa 0,0 l/m 0,0 km/h (0 Bft) S-SW 209 1,4 C 2,0 C 0,0 km/h (0 Bft)
23.01.2020 02:50 21,6 C 2,0 C 30 % 96 % 1033,4 hPa 0,0 l/m 0,0 km/h (0 Bft) S-SW 209 1,4 C 2,0 C 0,0 km/h (0 Bft)
23.01.2020 02:48 21,7 C 2,0 C 30 % 96 % 1033,4 hPa 0,0 l/m 0,0 km/h (0 Bft) S-SW 209 1,4 C 2,0 C 0,0 km/h (0 Bft)
23.01.2020 02:46 21,7 C 1,9 C 30 % 96 % 1033,4 hPa 0,0 l/m 0,0 km/h (0 Bft) S-SW 209 1,3 C 1,9 C 0,0 km/h (0 Bft)
23.01.2020 02:44 21,7 C 2,0 C 30 % 96 % 1033,5 hPa 0,0 l/m 0,0 km/h (0 Bft) S-SW 209 1,4 C 2,0 C 0,0 km/h (0 Bft)
23.01.2020 02:42 21,7 C 2,0 C 30 % 96 % 1033,5 hPa 0,0 l/m 0,0 km/h (0 Bft) S-SW 209 1,4 C 2,0 C 0,0 km/h (0 Bft)
23.01.2020 02:40 21,7 C 1,9 C 30 % 96 % 1033,5 hPa 0,0 l/m 0,0 km/h (0 Bft) S-SW 209 1,3 C 1,9 C 0,0 km/h (0 Bft)
23.01.2020 02:38 21,7 C 1,9 C 30 % 96 % 1033,5 hPa 0,0 l/m 0,0 km/h (0 Bft) S-SW 209 1,3 C 1,9 C 0,0 km/h (0 Bft)
23.01.2020 02:36 21,7 C 1,9 C 30 % 96 % 1033,5 hPa 0,0 l/m 0,0 km/h (0 Bft) S-SW 209 1,3 C 1,9 C 0,0 km/h (0 Bft)
23.01.2020 02:34 21,7 C 1,9 C 30 % 96 % 1033,5 hPa 0,0 l/m 0,0 km/h (0 Bft) S-SW 209 1,3 C 1,9 C 0,0 km/h (0 Bft)
23.01.2020 02:32 21,7 C 2,0 C 30 % 96 % 1033,5 hPa 0,0 l/m 0,0 km/h (0 Bft) S-SW 209 1,4 C 2,0 C 0,0 km/h (0 Bft)
23.01.2020 02:30 21,7 C 2,0 C 30 % 96 % 1033,5 hPa 0,0 l/m 0,0 km/h (0 Bft) S-SW 209 1,4 C 2,0 C 0,0 km/h (0 Bft)
23.01.2020 02:28 21,7 C 2,0 C 30 % 96 % 1033,7 hPa 0,0 l/m 0,0 km/h (0 Bft) S-SW 209 1,4 C 2,0 C 0,0 km/h (0 Bft)
23.01.2020 02:26 21,7 C 2,0 C 30 % 96 % 1033,7 hPa 0,0 l/m 0,0 km/h (0 Bft) S-SW 209 1,4 C 2,0 C 0,0 km/h (0 Bft)
23.01.2020 02:24 21,7 C 2,0 C 30 % 96 % 1033,7 hPa 0,0 l/m 0,0 km/h (0 Bft) S-SW 209 1,4 C 2,0 C 0,0 km/h (0 Bft)
23.01.2020 02:22 21,7 C 2,0 C 30 % 96 % 1033,7 hPa 0,0 l/m 0,0 km/h (0 Bft) S-SW 209 1,4 C 2,0 C 0,0 km/h (0 Bft)
23.01.2020 02:20 21,7 C 2,0 C 30 % 96 % 1033,7 hPa 0,0 l/m 0,0 km/h (0 Bft) S-SW 209 1,4 C 2,0 C 0,0 km/h (0 Bft)
23.01.2020 02:18 21,7 C 2,0 C 30 % 96 % 1033,7 hPa 0,0 l/m 0,0 km/h (0 Bft) S-SW 209 1,4 C 2,0 C 0,0 km/h (0 Bft)
23.01.2020 02:16 21,7 C 2,0 C 30 % 96 % 1033,7 hPa 0,0 l/m 0,0 km/h (0 Bft) S-SW 209 1,4 C 2,0 C 0,0 km/h (0 Bft)
23.01.2020 02:14 21,7 C 2,0 C 30 % 96 % 1033,7 hPa 0,0 l/m 0,0 km/h (0 Bft) S-SW 209 1,4 C 2,0 C 0,0 km/h (0 Bft)
23.01.2020 02:12 21,7 C 2,0 C 30 % 96 % 1033,7 hPa 0,0 l/m 0,0 km/h (0 Bft) S-SW 209 1,4 C 2,0 C 0,0 km/h (0 Bft)
23.01.2020 02:10 21,7 C 2,1 C 30 % 96 % 1033,7 hPa 0,0 l/m 0,0 km/h (0 Bft) S-SW 209 1,5 C 2,1 C 0,0 km/h (0 Bft)
23.01.2020 02:08 21,8 C 2,0 C 30 % 96 % 1033,7 hPa 0,0 l/m 0,0 km/h (0 Bft) S-SW 209 1,4 C 2,0 C 0,0 km/h (0 Bft)
23.01.2020 02:06 21,8 C 2,0 C 30 % 96 % 1033,7 hPa 0,0 l/m 0,0 km/h (0 Bft) S-SW 209 1,4 C 2,0 C 0,0 km/h (0 Bft)
23.01.2020 02:04 21,8 C 2,0 C 30 % 96 % 1033,7 hPa 0,0 l/m 0,0 km/h (0 Bft) S-SW 209 1,4 C 2,0 C 0,0 km/h (0 Bft)
23.01.2020 02:02 21,8 C 2,0 C 31 % 96 % 1033,7 hPa 0,0 l/m 0,0 km/h (0 Bft) S-SW 209 1,4 C 2,0 C 0,0 km/h (0 Bft)
23.01.2020 02:00 21,8 C 2,1 C 30 % 96 % 1033,7 hPa 0,0 l/m 0,0 km/h (0 Bft) S-SW 209 1,5 C 2,1 C 0,0 km/h (0 Bft)
23.01.2020 01:58 21,8 C 2,1 C 30 % 96 % 1033,9 hPa 0,0 l/m 0,0 km/h (0 Bft) S-SW 209 1,5 C 2,1 C 0,0 km/h (0 Bft)
23.01.2020 01:56 21,8 C 2,1 C 30 % 96 % 1033,9 hPa 0,0 l/m 0,0 km/h (0 Bft) S-SW 209 1,5 C 2,1 C 0,0 km/h (0 Bft)
23.01.2020 01:54 21,8 C 2,1 C 31 % 96 % 1033,9 hPa 0,0 l/m 0,0 km/h (0 Bft) S-SW 209 1,5 C 2,1 C 0,0 km/h (0 Bft)
23.01.2020 01:52 21,8 C 2,1 C 30 % 96 % 1033,9 hPa 0,0 l/m 0,0 km/h (0 Bft) S-SW 209 1,5 C 2,1 C 0,0 km/h (0 Bft)
23.01.2020 01:50 21,8 C 2,1 C 30 % 96 % 1033,9 hPa 0,0 l/m 0,0 km/h (0 Bft) S-SW 209 1,5 C 2,1 C 0,0 km/h (0 Bft)
23.01.2020 01:48 21,8 C 2,1 C 31 % 96 % 1033,9 hPa 0,0 l/m 0,0 km/h (0 Bft) S-SW 209 1,5 C 2,1 C 0,0 km/h (0 Bft)
23.01.2020 01:46 21,8 C 2,1 C 30 % 96 % 1033,9 hPa 0,0 l/m 0,0 km/h (0 Bft) S-SW 209 1,5 C 2,1 C 0,0 km/h (0 Bft)
23.01.2020 01:44 21,8 C 2,1 C 32 % 96 % 1033,9 hPa 0,0 l/m 0,0 km/h (0 Bft) S-SW 209 1,5 C 2,1 C 0,0 km/h (0 Bft)
23.01.2020 01:42 21,8 C 2,1 C 30 % 96 % 1033,9 hPa 0,0 l/m 0,0 km/h (0 Bft) S-SW 209 1,5 C 2,1 C 0,0 km/h (0 Bft)
23.01.2020 01:40 21,8 C 2,1 C 30 % 96 % 1033,9 hPa 0,0 l/m 0,0 km/h (0 Bft) S-SW 209 1,5 C 2,1 C 0,0 km/h (0 Bft)
23.01.2020 01:38 21,8 C 2,1 C 32 % 96 % 1033,9 hPa 0,0 l/m 0,0 km/h (0 Bft) S-SW 209 1,5 C 2,1 C 0,0 km/h (0 Bft)
23.01.2020 01:36 21,8 C 2,1 C 30 % 96 % 1033,9 hPa 0,0 l/m 0,0 km/h (0 Bft) S-SW 209 1,5 C 2,1 C 0,0 km/h (0 Bft)
23.01.2020 01:34 21,8 C 2,1 C 30 % 96 % 1033,9 hPa 0,0 l/m 0,0 km/h (0 Bft) S-SW 209 1,5 C 2,1 C 0,0 km/h (0 Bft)
23.01.2020 01:32 21,8 C 2,1 C 30 % 96 % 1033,9 hPa 0,0 l/m 0,0 km/h (0 Bft) S-SW 209 1,5 C 2,1 C 0,0 km/h (0 Bft)
23.01.2020 01:30 21,9 C 2,1 C 30 % 96 % 1033,9 hPa 0,0 l/m 0,0 km/h (0 Bft) S-SW 209 1,5 C 2,1 C 0,0 km/h (0 Bft)
23.01.2020 01:28 21,9 C 2,1 C 30 % 96 % 1033,9 hPa 0,0 l/m 0,0 km/h (0 Bft) S-SW 209 1,5 C 2,1 C 0,0 km/h (0 Bft)
23.01.2020 01:26 21,9 C 2,1 C 31 % 96 % 1033,9 hPa 0,0 l/m 0,0 km/h (0 Bft) S-SW 209 1,5 C 2,1 C 0,0 km/h (0 Bft)
23.01.2020 01:24 21,9 C 2,1 C 31 % 96 % 1033,9 hPa 0,0 l/m 0,0 km/h (0 Bft) S-SW 209 1,5 C 2,1 C 0,0 km/h (0 Bft)
23.01.2020 01:22 21,9 C 2,1 C 30 % 96 % 1033,9 hPa 0,0 l/m 0,0 km/h (0 Bft) S-SW 209 1,5 C 2,1 C 0,0 km/h (0 Bft)
23.01.2020 01:20 21,9 C 2,1 C 30 % 96 % 1033,9 hPa 0,0 l/m 0,0 km/h (0 Bft) S-SW 209 1,5 C 2,1 C 0,0 km/h (0 Bft)
23.01.2020 01:18 21,9 C 2,1 C 31 % 96 % 1033,9 hPa 0,0 l/m 0,0 km/h (0 Bft) S-SW 209 1,5 C 2,1 C 0,0 km/h (0 Bft)
23.01.2020 01:16 21,9 C 2,0 C 30 % 96 % 1033,9 hPa 0,0 l/m 0,0 km/h (0 Bft) S-SW 209 1,4 C 2,0 C 0,0 km/h (0 Bft)
23.01.2020 01:14 21,9 C 2,0 C 30 % 96 % 1034,0 hPa 0,0 l/m 0,0 km/h (0 Bft) S-SW 209 1,4 C 2,0 C 0,0 km/h (0 Bft)
23.01.2020 01:12 21,9 C 2,0 C 30 % 96 % 1034,0 hPa 0,0 l/m 0,0 km/h (0 Bft) S-SW 209 1,4 C 2,0 C 0,0 km/h (0 Bft)
23.01.2020 01:10 21,9 C 2,0 C 30 % 96 % 1034,0 hPa 0,0 l/m 0,0 km/h (0 Bft) S-SW 209 1,4 C 2,0 C 0,0 km/h (0 Bft)
23.01.2020 01:08 21,9 C 2,0 C 30 % 96 % 1034,0 hPa 0,0 l/m 0,0 km/h (0 Bft) S-SW 209 1,4 C 2,0 C 0,0 km/h (0 Bft)
23.01.2020 01:06 21,9 C 2,0 C 30 % 96 % 1034,0 hPa 0,0 l/m 0,0 km/h (0 Bft) S-SW 209 1,4 C 2,0 C 0,0 km/h (0 Bft)
23.01.2020 01:04 21,9 C 2,0 C 31 % 96 % 1034,0 hPa 0,0 l/m 0,0 km/h (0 Bft) S-SW 209 1,4 C 2,0 C 0,0 km/h (0 Bft)
23.01.2020 01:02 21,9 C 2,0 C 31 % 96 % 1034,0 hPa 0,0 l/m 0,0 km/h (0 Bft) S-SW 209 1,4 C 2,0 C 0,0 km/h (0 Bft)
23.01.2020 01:00 22,0 C 2,0 C 30 % 96 % 1034,0 hPa 0,0 l/m 0,0 km/h (0 Bft) S-SW 209 1,4 C 2,0 C 0,0 km/h (0 Bft)
23.01.2020 00:58 21,9 C 2,0 C 30 % 96 % 1034,2 hPa 0,0 l/m 0,0 km/h (0 Bft) S-SW 209 1,4 C 2,0 C 0,0 km/h (0 Bft)
23.01.2020 00:56 22,0 C 2,0 C 31 % 96 % 1034,2 hPa 0,0 l/m 0,0 km/h (0 Bft) S-SW 209 1,4 C 2,0 C 0,0 km/h (0 Bft)
23.01.2020 00:54 22,0 C 2,0 C 31 % 96 % 1034,2 hPa 0,0 l/m 0,0 km/h (0 Bft) S-SW 209 1,4 C 2,0 C 0,0 km/h (0 Bft)
23.01.2020 00:52 22,0 C 2,0 C 31 % 96 % 1034,2 hPa 0,0 l/m 0,0 km/h (0 Bft) S-SW 209 1,4 C 2,0 C 0,0 km/h (0 Bft)
23.01.2020 00:50 22,0 C 2,0 C 31 % 96 % 1034,2 hPa 0,0 l/m 0,0 km/h (0 Bft) S-SW 209 1,4 C 2,0 C 0,0 km/h (0 Bft)
23.01.2020 00:48 22,0 C 2,0 C 31 % 96 % 1034,2 hPa 0,0 l/m 0,0 km/h (0 Bft) S-SW 209 1,4 C 2,0 C 0,0 km/h (0 Bft)
23.01.2020 00:46 22,0 C 2,0 C 31 % 96 % 1034,2 hPa 0,0 l/m 0,0 km/h (0 Bft) S-SW 209 1,4 C 2,0 C 0,0 km/h (0 Bft)
23.01.2020 00:44 22,0 C 2,0 C 31 % 96 % 1034,4 hPa 0,0 l/m 0,0 km/h (0 Bft) S-SW 209 1,4 C 2,0 C 0,0 km/h (0 Bft)
23.01.2020 00:42 22,0 C 2,0 C 31 % 96 % 1034,4 hPa 0,0 l/m 0,0 km/h (0 Bft) S-SW 209 1,4 C 2,0 C 0,0 km/h (0 Bft)
23.01.2020 00:40 22,0 C 2,0 C 31 % 96 % 1034,4 hPa 0,0 l/m 0,0 km/h (0 Bft) S-SW 209 1,4 C 2,0 C 0,0 km/h (0 Bft)
23.01.2020 00:38 22,0 C 2,0 C 31 % 96 % 1034,4 hPa 0,0 l/m 0,0 km/h (0 Bft) S-SW 209 1,4 C 2,0 C 0,0 km/h (0 Bft)
23.01.2020 00:36 22,0 C 2,0 C 31 % 96 % 1034,4 hPa 0,0 l/m 0,0 km/h (0 Bft) S-SW 209 1,4 C 2,0 C 0,0 km/h (0 Bft)
23.01.2020 00:34 22,0 C 2,0 C 31 % 96 % 1034,4 hPa 0,0 l/m 0,0 km/h (0 Bft) S-SW 209 1,4 C 2,0 C 0,0 km/h (0 Bft)
23.01.2020 00:32 22,0 C 2,0 C 31 % 96 % 1034,4 hPa 0,0 l/m 0,0 km/h (0 Bft) S-SW 209 1,4 C 2,0 C 0,0 km/h (0 Bft)
23.01.2020 00:30 22,0 C 1,9 C 31 % 96 % 1034,4 hPa 0,0 l/m 0,0 km/h (0 Bft) S-SW 209 1,3 C 1,9 C 0,0 km/h (0 Bft)
23.01.2020 00:28 22,1 C 1,9 C 31 % 96 % 1034,2 hPa 0,0 l/m 0,0 km/h (0 Bft) S-SW 209 1,3 C 1,9 C 0,0 km/h (0 Bft)
23.01.2020 00:26 22,1 C 1,9 C 31 % 96 % 1034,2 hPa 0,0 l/m 0,1 km/h (0 Bft) S-SW 209 1,3 C 1,9 C 1,6 km/h (1 Bft)
23.01.2020 00:24 22,1 C 1,9 C 31 % 96 % 1034,2 hPa 0,0 l/m 0,0 km/h (0 Bft) S-SW 209 1,3 C 1,9 C 0,0 km/h (0 Bft)
23.01.2020 00:22 22,1 C 1,9 C 31 % 96 % 1034,2 hPa 0,0 l/m 0,0 km/h (0 Bft) S-SW 209 1,3 C 1,9 C 0,0 km/h (0 Bft)
23.01.2020 00:20 22,1 C 1,9 C 31 % 96 % 1034,2 hPa 0,0 l/m 0,0 km/h (0 Bft) S-SW 209 1,3 C 1,9 C 0,0 km/h (0 Bft)
23.01.2020 00:18 22,1 C 1,9 C 31 % 96 % 1034,2 hPa 0,0 l/m 0,0 km/h (0 Bft) S-SW 209 1,3 C 1,9 C 0,0 km/h (0 Bft)
23.01.2020 00:16 22,1 C 1,9 C 31 % 96 % 1034,2 hPa 0,0 l/m 0,0 km/h (0 Bft) S-SW 209 1,3 C 1,9 C 0,0 km/h (0 Bft)
23.01.2020 00:14 22,1 C 1,9 C 31 % 96 % 1034,2 hPa 0,0 l/m 0,0 km/h (0 Bft) S-SW 209 1,3 C 1,9 C 0,0 km/h (0 Bft)
23.01.2020 00:12 22,1 C 1,9 C 31 % 96 % 1034,1 hPa 0,0 l/m 0,0 km/h (0 Bft) S-SW 209 1,3 C 1,9 C 0,0 km/h (0 Bft)
23.01.2020 00:10 22,1 C 1,9 C 31 % 96 % 1034,1 hPa 0,0 l/m 0,0 km/h (0 Bft) S-SW 209 1,3 C 1,9 C 0,0 km/h (0 Bft)
23.01.2020 00:08 22,1 C 1,9 C 31 % 96 % 1034,1 hPa 0,0 l/m 0,0 km/h (0 Bft) S-SW 209 1,3 C 1,9 C 0,0 km/h (0 Bft)
23.01.2020 00:06 22,1 C 1,9 C 31 % 96 % 1034,1 hPa 0,0 l/m 0,0 km/h (0 Bft) S-SW 209 1,3 C 1,9 C 0,0 km/h (0 Bft)
23.01.2020 00:04 22,1 C 1,9 C 31 % 96 % 1034,1 hPa 0,0 l/m 0,0 km/h (0 Bft) S-SW 209 1,3 C 1,9 C 0,0 km/h (0 Bft)
23.01.2020 00:02 22,2 C 1,9 C 31 % 96 % 1034,1 hPa 0,0 l/m 0,0 km/h (0 Bft) S-SW 209 1,3 C 1,9 C 0,0 km/h (0 Bft)
23.01.2020 00:00 22,2 C 1,9 C 31 % 96 % 1034,1 hPa 0,0 l/m 0,0 km/h (0 Bft) S-SW 209 1,3 C 1,9 C 0,0 km/h (0 Bft)
22.01.2020 23:58 22,2 C 1,9 C 31 % 96 % 1034,4 hPa 0,0 l/m 0,0 km/h (0 Bft) S-SW 209 1,3 C 1,9 C 0,0 km/h (0 Bft)
22.01.2020 23:56 22,2 C 1,9 C 31 % 96 % 1034,4 hPa 0,0 l/m 0,0 km/h (0 Bft) S-SW 209 1,3 C 1,9 C 0,0 km/h (0 Bft)
22.01.2020 23:54 22,2 C 1,9 C 31 % 96 % 1034,4 hPa 0,0 l/m 0,0 km/h (0 Bft) S-SW 209 1,3 C 1,9 C 0,0 km/h (0 Bft)
22.01.2020 23:52 22,2 C 1,9 C 31 % 96 % 1034,4 hPa 0,0 l/m 0,0 km/h (0 Bft) S-SW 209 1,3 C 1,9 C 0,0 km/h (0 Bft)
22.01.2020 23:50 22,2 C 1,9 C 31 % 96 % 1034,4 hPa 0,0 l/m 0,0 km/h (0 Bft) S-SW 209 1,3 C 1,9 C 0,0 km/h (0 Bft)
22.01.2020 23:48 22,2 C 1,9 C 31 % 96 % 1034,4 hPa 0,0 l/m 0,0 km/h (0 Bft) S-SW 209 1,3 C 1,9 C 0,0 km/h (0 Bft)
22.01.2020 23:46 22,2 C 1,9 C 31 % 96 % 1034,4 hPa 0,0 l/m 0,0 km/h (0 Bft) S-SW 209 1,3 C 1,9 C 0,0 km/h (0 Bft)
22.01.2020 23:44 22,2 C 1,9 C 31 % 96 % 1034,2 hPa 0,0 l/m 0,0 km/h (0 Bft) S-SW 209 1,3 C 1,9 C 0,0 km/h (0 Bft)
22.01.2020 23:42 22,2 C 1,9 C 31 % 96 % 1034,2 hPa 0,0 l/m 0,0 km/h (0 Bft) S-SW 209 1,3 C 1,9 C 0,0 km/h (0 Bft)
22.01.2020 23:40 22,2 C 1,9 C 31 % 96 % 1034,2 hPa 0,0 l/m 0,0 km/h (0 Bft) S-SW 209 1,3 C 1,9 C 0,0 km/h (0 Bft)
22.01.2020 23:38 22,2 C 1,9 C 31 % 96 % 1034,2 hPa 0,0 l/m 0,0 km/h (0 Bft) S-SW 209 1,3 C 1,9 C 0,0 km/h (0 Bft)
22.01.2020 23:36 22,3 C 1,8 C 31 % 96 % 1034,2 hPa 0,0 l/m 0,0 km/h (0 Bft) S-SW 209 1,2 C 1,8 C 0,0 km/h (0 Bft)
22.01.2020 23:34 22,3 C 1,9 C 31 % 96 % 1034,2 hPa 0,0 l/m 0,0 km/h (0 Bft) S-SW 209 1,3 C 1,9 C 0,0 km/h (0 Bft)
22.01.2020 23:32 22,3 C 1,8 C 31 % 96 % 1034,2 hPa 0,0 l/m 0,0 km/h (0 Bft) S-SW 209 1,2 C 1,8 C 0,0 km/h (0 Bft)
22.01.2020 23:30 22,3 C 1,8 C 31 % 96 % 1034,2 hPa 0,0 l/m 0,0 km/h (0 Bft) S-SW 209 1,2 C 1,8 C 0,0 km/h (0 Bft)
22.01.2020 23:28 22,3 C 1,8 C 31 % 96 % 1034,2 hPa 0,0 l/m 0,0 km/h (0 Bft) S-SW 209 1,2 C 1,8 C 0,0 km/h (0 Bft)
22.01.2020 23:26 22,3 C 1,8 C 31 % 96 % 1034,2 hPa 0,0 l/m 0,0 km/h (0 Bft) S-SW 209 1,2 C 1,8 C 0,0 km/h (0 Bft)
22.01.2020 23:24 22,3 C 1,8 C 31 % 96 % 1034,2 hPa 0,0 l/m 0,0 km/h (0 Bft) S-SW 209 1,2 C 1,8 C 0,0 km/h (0 Bft)
22.01.2020 23:22 22,3 C 1,8 C 31 % 96 % 1034,2 hPa 0,0 l/m 0,0 km/h (0 Bft) S-SW 209 1,2 C 1,8 C 0,0 km/h (0 Bft)
22.01.2020 23:20 22,3 C 1,8 C 31 % 96 % 1034,2 hPa 0,0 l/m 0,0 km/h (0 Bft) S-SW 209 1,2 C 1,8 C 0,0 km/h (0 Bft)
22.01.2020 23:18 22,3 C 1,8 C 31 % 96 % 1034,2 hPa 0,0 l/m 0,0 km/h (0 Bft) S-SW 209 1,2 C 1,8 C 0,0 km/h (0 Bft)
22.01.2020 23:16 22,3 C 1,8 C 31 % 96 % 1034,2 hPa 0,0 l/m 0,0 km/h (0 Bft) S-SW 209 1,2 C 1,8 C 0,0 km/h (0 Bft)
22.01.2020 23:14 22,3 C 1,8 C 31 % 96 % 1034,4 hPa 0,0 l/m 0,0 km/h (0 Bft) S-SW 209 1,2 C 1,8 C 0,0 km/h (0 Bft)
22.01.2020 23:12 22,4 C 1,8 C 31 % 96 % 1034,4 hPa 0,0 l/m 0,0 km/h (0 Bft) S-SW 209 1,2 C 1,8 C 0,0 km/h (0 Bft)
22.01.2020 23:10 22,4 C 1,8 C 31 % 96 % 1034,4 hPa 0,0 l/m 0,0 km/h (0 Bft) S-SW 209 1,2 C 1,8 C 0,0 km/h (0 Bft)
22.01.2020 23:08 22,4 C 1,8 C 31 % 96 % 1034,4 hPa 0,0 l/m 0,1 km/h (0 Bft) S-SW 209 1,2 C 1,8 C 1,6 km/h (1 Bft)
22.01.2020 23:06 22,4 C 1,8 C 31 % 96 % 1034,4 hPa 0,0 l/m 0,0 km/h (0 Bft) S-SW 209 1,2 C 1,8 C 0,0 km/h (0 Bft)
22.01.2020 23:04 22,4 C 1,8 C 31 % 96 % 1034,4 hPa 0,0 l/m 0,0 km/h (0 Bft) S-SW 209 1,2 C 1,8 C 0,0 km/h (0 Bft)
22.01.2020 23:02 22,4 C 1,8 C 31 % 96 % 1034,4 hPa 0,0 l/m 0,0 km/h (0 Bft) S-SW 209 1,2 C 1,8 C 0,0 km/h (0 Bft)
22.01.2020 23:00 22,4 C 1,8 C 31 % 96 % 1034,4 hPa 0,0 l/m 0,0 km/h (0 Bft) S-SW 209 1,2 C 1,8 C 0,0 km/h (0 Bft)
22.01.2020 22:58 22,4 C 1,8 C 31 % 96 % 1034,5 hPa 0,0 l/m 0,0 km/h (0 Bft) S-SW 209 1,2 C 1,8 C 0,0 km/h (0 Bft)
22.01.2020 22:56 22,4 C 1,8 C 31 % 96 % 1034,5 hPa 0,0 l/m 0,6 km/h (0 Bft) S-SW 209 1,2 C 1,8 C 1,6 km/h (1 Bft)
22.01.2020 22:54 22,4 C 1,8 C 31 % 96 % 1034,5 hPa 0,0 l/m 1,2 km/h (1 Bft) S-SW 209 1,2 C 1,8 C 3,2 km/h (1 Bft)
22.01.2020 22:52 22,4 C 1,8 C 31 % 96 % 1034,5 hPa 0,0 l/m 0,2 km/h (0 Bft) S-SW 209 1,2 C 1,8 C 1,6 km/h (1 Bft)
22.01.2020 22:50 22,4 C 1,8 C 31 % 96 % 1034,5 hPa 0,0 l/m 0,0 km/h (0 Bft) S-SW 209 1,2 C 1,8 C 0,0 km/h (0 Bft)
22.01.2020 22:48 22,4 C 1,8 C 31 % 96 % 1034,5 hPa 0,0 l/m 0,0 km/h (0 Bft) S-SW 209 1,2 C 1,8 C 0,0 km/h (0 Bft)
22.01.2020 22:46 22,4 C 1,8 C 31 % 96 % 1034,5 hPa 0,0 l/m 0,2 km/h (0 Bft) S-SW 209 1,2 C 1,8 C 1,6 km/h (1 Bft)
22.01.2020 22:44 22,4 C 1,8 C 31 % 96 % 1034,4 hPa 0,0 l/m 0,0 km/h (0 Bft) S-SW 209 1,2 C 1,8 C 0,0 km/h (0 Bft)
22.01.2020 22:42 22,4 C 1,8 C 31 % 96 % 1034,4 hPa 0,0 l/m 0,0 km/h (0 Bft) S-SW 209 1,2 C 1,8 C 0,0 km/h (0 Bft)
22.01.2020 22:40 22,4 C 1,8 C 31 % 96 % 1034,4 hPa 0,0 l/m 0,0 km/h (0 Bft) S-SW 209 1,2 C 1,8 C 0,0 km/h (0 Bft)
22.01.2020 22:38 22,4 C 1,8 C 31 % 96 % 1034,4 hPa 0,0 l/m 0,0 km/h (0 Bft) S-SW 209 1,2 C 1,8 C 0,0 km/h (0 Bft)
22.01.2020 22:36 22,6 C 1,8 C 31 % 96 % 1034,4 hPa 0,0 l/m 0,0 km/h (0 Bft) S-SW 209 1,2 C 1,8 C 0,0 km/h (0 Bft)
22.01.2020 22:34 22,6 C 1,7 C 31 % 96 % 1034,4 hPa 0,0 l/m 0,0 km/h (0 Bft) S-SW 209 1,1 C 1,7 C 0,0 km/h (0 Bft)
22.01.2020 22:32 22,6 C 1,7 C 31 % 96 % 1034,4 hPa 0,0 l/m 0,0 km/h (0 Bft) S-SW 209 1,1 C 1,7 C 0,0 km/h (0 Bft)
22.01.2020 22:30 22,6 C 1,7 C 31 % 96 % 1034,4 hPa 0,0 l/m 0,0 km/h (0 Bft) S-SW 209 1,1 C 1,7 C 0,0 km/h (0 Bft)
22.01.2020 22:28 22,6 C 1,7 C 31 % 96 % 1034,5 hPa 0,0 l/m 0,0 km/h (0 Bft) S-SW 209 1,1 C 1,7 C 0,0 km/h (0 Bft)
22.01.2020 22:26 22,6 C 1,7 C 31 % 96 % 1034,5 hPa 0,0 l/m 0,0 km/h (0 Bft) S-SW 209 1,1 C 1,7 C 0,0 km/h (0 Bft)
22.01.2020 22:24 22,6 C 1,7 C 31 % 96 % 1034,5 hPa 0,0 l/m 0,0 km/h (0 Bft) S-SW 209 1,1 C 1,7 C 0,0 km/h (0 Bft)
22.01.2020 22:22 22,6 C 1,7 C 31 % 96 % 1034,5 hPa 0,0 l/m 0,0 km/h (0 Bft) S-SW 209 1,1 C 1,7 C 0,0 km/h (0 Bft)
22.01.2020 22:20 22,6 C 1,7 C 31 % 96 % 1034,5 hPa 0,0 l/m 0,0 km/h (0 Bft) S-SW 209 1,1 C 1,7 C 0,0 km/h (0 Bft)
22.01.2020 22:18 22,6 C 1,7 C 31 % 96 % 1034,5 hPa 0,0 l/m 0,0 km/h (0 Bft) S-SW 209 1,1 C 1,7 C 0,0 km/h (0 Bft)
22.01.2020 22:16 22,6 C 1,7 C 31 % 96 % 1034,5 hPa 0,0 l/m 0,0 km/h (0 Bft) S-SW 209 1,1 C 1,7 C 0,0 km/h (0 Bft)
22.01.2020 22:14 22,6 C 1,7 C 31 % 96 % 1034,5 hPa 0,0 l/m 0,0 km/h (0 Bft) S-SW 209 1,1 C 1,7 C 0,0 km/h (0 Bft)
22.01.2020 22:12 22,6 C 1,7 C 31 % 96 % 1034,5 hPa 0,0 l/m 0,0 km/h (0 Bft) S-SW 209 1,1 C 1,7 C 0,0 km/h (0 Bft)
22.01.2020 22:10 22,6 C 1,7 C 31 % 96 % 1034,5 hPa 0,0 l/m 0,0 km/h (0 Bft) S-SW 209 1,1 C 1,7 C 0,0 km/h (0 Bft)
22.01.2020 22:08 22,6 C 1,7 C 31 % 96 % 1034,5 hPa 0,0 l/m 0,0 km/h (0 Bft) S-SW 209 1,1 C 1,7 C 0,0 km/h (0 Bft)
22.01.2020 22:06 22,6 C 1,7 C 31 % 96 % 1034,5 hPa 0,0 l/m 0,0 km/h (0 Bft) S-SW 209 1,1 C 1,7 C 0,0 km/h (0 Bft)
22.01.2020 22:04 22,6 C 1,6 C 31 % 96 % 1034,5 hPa 0,0 l/m 0,0 km/h (0 Bft) S-SW 209 1,0 C 1,6 C 0,0 km/h (0 Bft)
22.01.2020 22:02 22,6 C 1,6 C 31 % 96 % 1034,5 hPa 0,0 l/m 0,0 km/h (0 Bft) S-SW 209 1,0 C 1,6 C 0,0 km/h (0 Bft)
22.01.2020 22:00 22,6 C 1,6 C 31 % 96 % 1034,5 hPa 0,0 l/m 0,0 km/h (0 Bft) S-SW 209 1,0 C 1,6 C 0,0 km/h (0 Bft)
22.01.2020 21:58 22,6 C 1,7 C 31 % 96 % 1034,3 hPa 0,0 l/m 0,0 km/h (0 Bft) S-SW 209 1,1 C 1,7 C 0,0 km/h (0 Bft)
22.01.2020 21:56 22,7 C 1,7 C 31 % 96 % 1034,3 hPa 0,0 l/m 0,0 km/h (0 Bft) S-SW 209 1,1 C 1,7 C 0,0 km/h (0 Bft)
22.01.2020 21:54 22,7 C 1,7 C 31 % 96 % 1034,3 hPa 0,0 l/m 0,0 km/h (0 Bft) S-SW 209 1,1 C 1,7 C 0,0 km/h (0 Bft)
22.01.2020 21:52 22,7 C 1,6 C 31 % 96 % 1034,3 hPa 0,0 l/m 0,0 km/h (0 Bft) S-SW 209 1,0 C 1,6 C 0,0 km/h (0 Bft)
22.01.2020 21:50 22,7 C 1,7 C 31 % 96 % 1034,3 hPa 0,0 l/m 0,0 km/h (0 Bft) S-SW 209 1,1 C 1,7 C 0,0 km/h (0 Bft)
22.01.2020 21:48 22,7 C 1,7 C 31 % 96 % 1034,3 hPa 0,0 l/m 0,0 km/h (0 Bft) S-SW 209 1,1 C 1,7 C 0,0 km/h (0 Bft)
22.01.2020 21:46 22,7 C 1,7 C 31 % 96 % 1034,3 hPa 0,0 l/m 0,0 km/h (0 Bft) S-SW 209 1,1 C 1,7 C 0,0 km/h (0 Bft)
22.01.2020 21:44 22,7 C 1,7 C 31 % 96 % 1034,1 hPa 0,0 l/m 0,0 km/h (0 Bft) S-SW 209 1,1 C 1,7 C 0,0 km/h (0 Bft)
22.01.2020 21:42 22,7 C 1,7 C 31 % 96 % 1034,1 hPa 0,0 l/m 0,0 km/h (0 Bft) S-SW 209 1,1 C 1,7 C 0,0 km/h (0 Bft)
22.01.2020 21:40 22,7 C 1,7 C 31 % 96 % 1034,1 hPa 0,0 l/m 0,0 km/h (0 Bft) S-SW 209 1,1 C 1,7 C 0,0 km/h (0 Bft)
22.01.2020 21:38 22,8 C 1,7 C 31 % 96 % 1034,1 hPa 0,0 l/m 0,0 km/h (0 Bft) S-SW 209 1,1 C 1,7 C 0,0 km/h (0 Bft)
22.01.2020 21:36 22,8 C 1,7 C 31 % 96 % 1034,1 hPa 0,0 l/m 0,0 km/h (0 Bft) S-SW 209 1,1 C 1,7 C 0,0 km/h (0 Bft)
22.01.2020 21:34 22,8 C 1,7 C 31 % 96 % 1034,1 hPa 0,0 l/m 0,0 km/h (0 Bft) S-SW 209 1,1 C 1,7 C 0,0 km/h (0 Bft)
22.01.2020 21:32 22,8 C 1,7 C 31 % 96 % 1034,1 hPa 0,0 l/m 0,0 km/h (0 Bft) S-SW 209 1,1 C 1,7 C 0,0 km/h (0 Bft)
22.01.2020 21:30 22,8 C 1,7 C 31 % 96 % 1034,1 hPa 0,0 l/m 0,0 km/h (0 Bft) S-SW 209 1,1 C 1,7 C 0,0 km/h (0 Bft)
22.01.2020 21:28 22,8 C 1,7 C 31 % 96 % 1034,1 hPa 0,0 l/m 0,0 km/h (0 Bft) S-SW 209 1,1 C 1,7 C 0,0 km/h (0 Bft)
22.01.2020 21:26 22,8 C 1,7 C 31 % 96 % 1034,1 hPa 0,0 l/m 0,0 km/h (0 Bft) S-SW 209 1,1 C 1,7 C 0,0 km/h (0 Bft)
22.01.2020 21:24 22,8 C 1,7 C 31 % 96 % 1034,1 hPa 0,0 l/m 0,0 km/h (0 Bft) S-SW 209 1,1 C 1,7 C 0,0 km/h (0 Bft)
22.01.2020 21:22 22,8 C 1,7 C 31 % 96 % 1034,1 hPa 0,0 l/m 0,0 km/h (0 Bft) S-SW 209 1,1 C 1,7 C 0,0 km/h (0 Bft)
22.01.2020 21:20 22,8 C 1,7 C 31 % 96 % 1034,1 hPa 0,0 l/m 0,0 km/h (0 Bft) S-SW 209 1,1 C 1,7 C 0,0 km/h (0 Bft)
22.01.2020 21:18 22,8 C 1,7 C 31 % 96 % 1034,1 hPa 0,0 l/m 0,0 km/h (0 Bft) S-SW 209 1,1 C 1,7 C 0,0 km/h (0 Bft)
22.01.2020 21:16 22,8 C 1,7 C 31 % 96 % 1034,1 hPa 0,0 l/m 0,0 km/h (0 Bft) S-SW 209 1,1 C 1,7 C 0,0 km/h (0 Bft)
22.01.2020 21:14 22,8 C 1,7 C 31 % 96 % 1034,2 hPa 0,0 l/m 0,0 km/h (0 Bft) S-SW 209 1,1 C 1,7 C 0,0 km/h (0 Bft)
22.01.2020 21:12 22,8 C 1,7 C 31 % 96 % 1034,2 hPa 0,0 l/m 0,0 km/h (0 Bft) S-SW 209 1,1 C 1,7 C 0,0 km/h (0 Bft)
22.01.2020 21:10 22,8 C 1,7 C 31 % 96 % 1034,2 hPa 0,0 l/m 0,0 km/h (0 Bft) S-SW 209 1,1 C 1,7 C 0,0 km/h (0 Bft)
22.01.2020 21:08 22,8 C 1,7 C 31 % 96 % 1034,2 hPa 0,0 l/m 0,0 km/h (0 Bft) S-SW 209 1,1 C 1,7 C 0,0 km/h (0 Bft)
22.01.2020 21:06 22,8 C 1,7 C 31 % 96 % 1034,2 hPa 0,0 l/m 0,0 km/h (0 Bft) S-SW 209 1,1 C 1,7 C 0,0 km/h (0 Bft)
22.01.2020 21:04 22,8 C 1,7 C 31 % 96 % 1034,2 hPa 0,0 l/m 0,0 km/h (0 Bft) S-SW 209 1,1 C 1,7 C 0,0 km/h (0 Bft)
22.01.2020 21:02 22,8 C 1,7 C 31 % 96 % 1034,2 hPa 0,0 l/m 0,0 km/h (0 Bft) S-SW 209 1,1 C 1,7 C 1,6 km/h (1 Bft)
22.01.2020 21:00 22,8 C 1,7 C 31 % 96 % 1034,2 hPa 0,0 l/m 0,0 km/h (0 Bft) SW 220 1,1 C 1,7 C 0,0 km/h (0 Bft)
22.01.2020 20:58 22,8 C 1,7 C 31 % 96 % 1034,0 hPa 0,0 l/m 0,0 km/h (0 Bft) SW 220 1,1 C 1,7 C 0,0 km/h (0 Bft)
22.01.2020 20:56 22,8 C 1,7 C 31 % 96 % 1034,0 hPa 0,0 l/m 0,0 km/h (0 Bft) SW 220 1,1 C 1,7 C 0,0 km/h (0 Bft)
22.01.2020 20:54 22,8 C 1,7 C 31 % 96 % 1034,0 hPa 0,0 l/m 0,0 km/h (0 Bft) SW 220 1,1 C 1,7 C 0,0 km/h (0 Bft)
22.01.2020 20:52 22,8 C 1,7 C 31 % 96 % 1034,0 hPa 0,0 l/m 0,0 km/h (0 Bft) SW 220 1,1 C 1,7 C 0,0 km/h (0 Bft)
22.01.2020 20:50 22,8 C 1,8 C 31 % 96 % 1034,0 hPa 0,0 l/m 0,0 km/h (0 Bft) SW 220 1,2 C 1,8 C 0,0 km/h (0 Bft)
22.01.2020 20:48 22,8 C 1,7 C 31 % 96 % 1034,0 hPa 0,0 l/m 0,0 km/h (0 Bft) SW 220 1,1 C 1,7 C 0,0 km/h (0 Bft)
22.01.2020 20:46 22,8 C 1,8 C 31 % 96 % 1034,0 hPa 0,0 l/m 0,0 km/h (0 Bft) SW 220 1,2 C 1,8 C 0,0 km/h (0 Bft)
22.01.2020 20:44 22,8 C 1,8 C 31 % 96 % 1034,2 hPa 0,0 l/m 0,0 km/h (0 Bft) SW 220 1,2 C 1,8 C 0,0 km/h (0 Bft)
22.01.2020 20:42 22,8 C 1,8 C 31 % 96 % 1034,2 hPa 0,0 l/m 0,0 km/h (0 Bft) SW 220 1,2 C 1,8 C 0,0 km/h (0 Bft)
22.01.2020 20:40 22,8 C 1,8 C 31 % 96 % 1034,2 hPa 0,0 l/m 0,0 km/h (0 Bft) SW 220 1,2 C 1,8 C 0,0 km/h (0 Bft)
22.01.2020 20:38 22,8 C 1,8 C 31 % 96 % 1034,2 hPa 0,0 l/m 0,0 km/h (0 Bft) SW 220 1,2 C 1,8 C 0,0 km/h (0 Bft)
22.01.2020 20:36 22,8 C 1,8 C 31 % 96 % 1034,2 hPa 0,0 l/m 0,0 km/h (0 Bft) SW 220 1,2 C 1,8 C 0,0 km/h (0 Bft)
22.01.2020 20:34 22,8 C 1,7 C 31 % 96 % 1034,2 hPa 0,0 l/m 0,0 km/h (0 Bft) SW 220 1,1 C 1,7 C 0,0 km/h (0 Bft)
22.01.2020 20:32 22,8 C 1,7 C 31 % 96 % 1034,2 hPa 0,0 l/m 0,0 km/h (0 Bft) SW 220 1,1 C 1,7 C 0,0 km/h (0 Bft)
22.01.2020 20:30 22,8 C 1,7 C 31 % 96 % 1034,2 hPa 0,0 l/m 0,0 km/h (0 Bft) SW 220 1,1 C 1,7 C 0,0 km/h (0 Bft)
22.01.2020 20:28 22,8 C 1,7 C 31 % 96 % 1034,1 hPa 0,0 l/m 0,0 km/h (0 Bft) SW 220 1,1 C 1,7 C 0,0 km/h (0 Bft)
22.01.2020 20:26 22,8 C 1,7 C 31 % 96 % 1034,1 hPa 0,0 l/m 0,0 km/h (0 Bft) SW 220 1,1 C 1,7 C 0,0 km/h (0 Bft)
22.01.2020 20:24 22,8 C 1,7 C 31 % 96 % 1034,1 hPa 0,0 l/m 0,0 km/h (0 Bft) SW 220 1,1 C 1,7 C 0,0 km/h (0 Bft)
22.01.2020 20:22 22,8 C 1,7 C 31 % 96 % 1034,1 hPa 0,0 l/m 0,0 km/h (0 Bft) SW 220 1,1 C 1,7 C 0,0 km/h (0 Bft)
22.01.2020 20:20 22,8 C 1,7 C 31 % 96 % 1034,1 hPa 0,0 l/m 0,0 km/h (0 Bft) SW 220 1,1 C 1,7 C 0,0 km/h (0 Bft)
22.01.2020 20:18 22,8 C 1,7 C 31 % 96 % 1034,1 hPa 0,0 l/m 0,0 km/h (0 Bft) SW 220 1,1 C 1,7 C 0,0 km/h (0 Bft)
22.01.2020 20:16 22,8 C 1,7 C 31 % 96 % 1034,1 hPa 0,0 l/m 0,0 km/h (0 Bft) SW 220 1,1 C 1,7 C 0,0 km/h (0 Bft)
22.01.2020 20:14 22,8 C 1,7 C 31 % 96 % 1034,1 hPa 0,0 l/m 0,0 km/h (0 Bft) SW 220 1,1 C 1,7 C 0,0 km/h (0 Bft)
22.01.2020 20:12 22,8 C 1,7 C 31 % 96 % 1034,1 hPa 0,0 l/m 0,0 km/h (0 Bft) SW 220 1,1 C 1,7 C 0,0 km/h (0 Bft)
22.01.2020 20:10 22,8 C 1,7 C 31 % 96 % 1034,1 hPa 0,0 l/m 0,0 km/h (0 Bft) SW 220 1,1 C 1,7 C 0,0 km/h (0 Bft)
22.01.2020 20:08 22,8 C 1,7 C 31 % 96 % 1034,1 hPa 0,0 l/m 0,0 km/h (0 Bft) SW 220 1,1 C 1,7 C 0,0 km/h (0 Bft)
22.01.2020 20:06 22,8 C 1,7 C 31 % 96 % 1034,1 hPa 0,0 l/m 0,8 km/h (0 Bft) SW 220 1,1 C 1,7 C 3,2 km/h (1 Bft)
22.01.2020 20:04 22,8 C 1,7 C 31 % 96 % 1034,1 hPa 0,0 l/m 0,0 km/h (0 Bft) SW 220 1,1 C 1,7 C 0,0 km/h (0 Bft)
22.01.2020 20:02 22,8 C 1,6 C 31 % 96 % 1034,1 hPa 0,0 l/m 0,2 km/h (0 Bft) SW 220 1,0 C 1,6 C 1,6 km/h (1 Bft)
22.01.2020 20:00 22,8 C 1,6 C 31 % 96 % 1034,1 hPa 0,0 l/m 0,0 km/h (0 Bft) SW 220 1,0 C 1,6 C 0,0 km/h (0 Bft)
22.01.2020 19:58 22,8 C 1,6 C 31 % 96 % 1034,0 hPa 0,0 l/m 0,0 km/h (0 Bft) SW 220 1,0 C 1,6 C 0,0 km/h (0 Bft)
22.01.2020 19:56 22,8 C 1,6 C 31 % 96 % 1034,0 hPa 0,0 l/m 0,0 km/h (0 Bft) SW 220 1,0 C 1,6 C 0,0 km/h (0 Bft)
22.01.2020 19:54 22,8 C 1,6 C 31 % 96 % 1034,0 hPa 0,0 l/m 0,0 km/h (0 Bft) SW 220 1,0 C 1,6 C 0,0 km/h (0 Bft)
22.01.2020 19:52 22,8 C 1,6 C 31 % 96 % 1034,0 hPa 0,0 l/m 0,0 km/h (0 Bft) SW 220 1,0 C 1,6 C 0,0 km/h (0 Bft)
22.01.2020 19:50 22,8 C 1,6 C 31 % 96 % 1034,0 hPa 0,0 l/m 0,0 km/h (0 Bft) SW 220 1,0 C 1,6 C 0,0 km/h (0 Bft)
22.01.2020 19:48 22,8 C 1,6 C 31 % 96 % 1034,0 hPa 0,0 l/m 0,0 km/h (0 Bft) SW 220 1,0 C 1,6 C 0,0 km/h (0 Bft)
22.01.2020 19:46 22,8 C 1,6 C 31 % 96 % 1034,0 hPa 0,0 l/m 0,0 km/h (0 Bft) SW 220 1,0 C 1,6 C 0,0 km/h (0 Bft)
22.01.2020 19:44 22,8 C 1,6 C 31 % 96 % 1034,1 hPa 0,0 l/m 0,1 km/h (0 Bft) SW 220 1,0 C 1,6 C 1,6 km/h (1 Bft)
22.01.2020 19:42 22,8 C 1,6 C 31 % 96 % 1034,1 hPa 0,0 l/m 0,0 km/h (0 Bft) SW 220 1,0 C 1,6 C 0,0 km/h (0 Bft)
22.01.2020 19:40 22,8 C 1,6 C 31 % 96 % 1034,1 hPa 0,0 l/m 0,0 km/h (0 Bft) SW 220 1,0 C 1,6 C 0,0 km/h (0 Bft)
22.01.2020 19:38 22,8 C 1,6 C 31 % 96 % 1034,1 hPa 0,0 l/m 0,0 km/h (0 Bft) SW 220 1,0 C 1,6 C 0,0 km/h (0 Bft)
22.01.2020 19:36 22,8 C 1,6 C 31 % 96 % 1034,1 hPa 0,0 l/m 0,0 km/h (0 Bft) SW 220 1,0 C 1,6 C 0,0 km/h (0 Bft)
22.01.2020 19:34 22,9 C 1,6 C 31 % 96 % 1034,1 hPa 0,0 l/m 0,0 km/h (0 Bft) SW 220 1,0 C 1,6 C 0,0 km/h (0 Bft)
22.01.2020 19:32 22,9 C 1,6 C 31 % 96 % 1034,1 hPa 0,0 l/m 0,0 km/h (0 Bft) SW 220 1,0 C 1,6 C 0,0 km/h (0 Bft)
22.01.2020 19:30 22,9 C 1,6 C 31 % 96 % 1034,1 hPa 0,0 l/m 0,1 km/h (0 Bft) SW 220 1,0 C 1,6 C 1,6 km/h (1 Bft)
22.01.2020 19:28 22,9 C 1,6 C 31 % 96 % 1034,0 hPa 0,0 l/m 0,0 km/h (0 Bft) SW 220 1,0 C 1,6 C 0,0 km/h (0 Bft)
22.01.2020 19:26 22,9 C 1,6 C 31 % 96 % 1034,0 hPa 0,0 l/m 0,0 km/h (0 Bft) SW 220 1,0 C 1,6 C 0,0 km/h (0 Bft)
22.01.2020 19:24 22,9 C 1,5 C 31 % 96 % 1034,0 hPa 0,0 l/m 0,0 km/h (0 Bft) SW 220 0,9 C 1,5 C 0,0 km/h (0 Bft)
22.01.2020 19:22 22,9 C 1,5 C 31 % 96 % 1034,0 hPa 0,0 l/m 0,0 km/h (0 Bft) SW 220 0,9 C 1,5 C 0,0 km/h (0 Bft)
22.01.2020 19:20 22,9 C 1,4 C 31 % 96 % 1034,0 hPa 0,0 l/m 0,0 km/h (0 Bft) SW 220 0,8 C 1,4 C 0,0 km/h (0 Bft)
22.01.2020 19:18 22,9 C 1,4 C 31 % 96 % 1034,0 hPa 0,0 l/m 0,2 km/h (0 Bft) SW 220 0,8 C 1,4 C 1,6 km/h (1 Bft)
22.01.2020 19:16 22,9 C 1,4 C 31 % 96 % 1034,0 hPa 0,0 l/m 0,0 km/h (0 Bft) SW 220 0,8 C 1,4 C 0,0 km/h (0 Bft)
22.01.2020 19:14 22,9 C 1,4 C 31 % 96 % 1034,0 hPa 0,0 l/m 0,0 km/h (0 Bft) SW 220 0,8 C 1,4 C 0,0 km/h (0 Bft)
22.01.2020 19:12 22,9 C 1,4 C 31 % 96 % 1034,0 hPa 0,0 l/m 0,1 km/h (0 Bft) SW 220 0,8 C 1,4 C 1,6 km/h (1 Bft)
22.01.2020 19:10 22,9 C 1,4 C 31 % 96 % 1034,0 hPa 0,0 l/m 2,2 km/h (1 Bft) SW 220 0,8 C 1,4 C 4,8 km/h (1 Bft)
22.01.2020 19:08 22,9 C 1,4 C 31 % 96 % 1034,0 hPa 0,0 l/m 1,8 km/h (1 Bft) SW 220 0,8 C 1,4 C 3,2 km/h (1 Bft)
22.01.2020 19:06 22,9 C 1,4 C 31 % 96 % 1034,0 hPa 0,0 l/m 1,9 km/h (1 Bft) SW 220 0,8 C 1,4 C 3,2 km/h (1 Bft)
22.01.2020 19:04 22,9 C 1,4 C 31 % 96 % 1034,0 hPa 0,0 l/m 1,9 km/h (1 Bft) SW 220 0,8 C 1,4 C 4,8 km/h (1 Bft)
22.01.2020 19:02 22,9 C 1,3 C 31 % 96 % 1034,0 hPa 0,0 l/m 1,1 km/h (1 Bft) SW 220 0,7 C 1,3 C 1,6 km/h (1 Bft)
22.01.2020 19:00 22,9 C 1,3 C 31 % 96 % 1034,0 hPa 0,0 l/m 2,0 km/h (1 Bft) SW 221 0,7 C 1,3 C 4,8 km/h (1 Bft)
22.01.2020 18:58 22,9 C 1,3 C 31 % 96 % 1034,0 hPa 0,0 l/m 1,6 km/h (1 Bft) SW 235 0,7 C 1,3 C 3,2 km/h (1 Bft)
22.01.2020 18:56 22,9 C 1,4 C 31 % 96 % 1034,0 hPa 0,0 l/m 0,8 km/h (0 Bft) SW 235 0,8 C 1,4 C 4,8 km/h (1 Bft)
22.01.2020 18:54 22,9 C 1,4 C 31 % 96 % 1034,0 hPa 0,0 l/m 0,2 km/h (0 Bft) SW 228 0,8 C 1,4 C 1,6 km/h (1 Bft)
22.01.2020 18:52 22,9 C 1,4 C 31 % 96 % 1034,0 hPa 0,0 l/m 1,9 km/h (1 Bft) SW 228 0,8 C 1,4 C 4,8 km/h (1 Bft)
22.01.2020 18:50 22,9 C 1,4 C 31 % 96 % 1034,0 hPa 0,0 l/m 1,5 km/h (1 Bft) SW 228 0,8 C 1,4 C 3,2 km/h (1 Bft)
22.01.2020 18:48 22,9 C 1,4 C 31 % 96 % 1034,0 hPa 0,0 l/m 0,0 km/h (0 Bft) SW 234 0,8 C 1,4 C 1,6 km/h (1 Bft)
22.01.2020 18:46 22,9 C 1,4 C 30 % 96 % 1034,0 hPa 0,0 l/m 0,0 km/h (0 Bft) SW 234 0,8 C 1,4 C 0,0 km/h (0 Bft)
22.01.2020 18:44 22,9 C 1,4 C 31 % 96 % 1034,0 hPa 0,0 l/m 1,1 km/h (1 Bft) SW 234 0,8 C 1,4 C 4,8 km/h (1 Bft)
22.01.2020 18:42 22,9 C 1,4 C 30 % 96 % 1034,0 hPa 0,0 l/m 0,9 km/h (0 Bft) SW 234 0,8 C 1,4 C 3,2 km/h (1 Bft)
22.01.2020 18:40 22,9 C 1,4 C 30 % 96 % 1034,0 hPa 0,0 l/m 2,1 km/h (1 Bft) SW 234 0,8 C 1,4 C 4,8 km/h (1 Bft)
22.01.2020 18:38 22,9 C 1,4 C 31 % 96 % 1034,0 hPa 0,0 l/m 1,8 km/h (1 Bft) SW 225 0,8 C 1,4 C 4,8 km/h (1 Bft)
22.01.2020 18:36 22,9 C 1,4 C 31 % 96 % 1034,0 hPa 0,0 l/m 0,1 km/h (0 Bft) SW 230 0,8 C 1,4 C 1,6 km/h (1 Bft)
22.01.2020 18:34 22,9 C 1,4 C 30 % 96 % 1034,0 hPa 0,0 l/m 0,0 km/h (0 Bft) SW 230 0,8 C 1,4 C 0,0 km/h (0 Bft)
22.01.2020 18:32 22,9 C 1,4 C 30 % 96 % 1034,0 hPa 0,0 l/m 0,3 km/h (0 Bft) SW 230 0,8 C 1,4 C 1,6 km/h (1 Bft)
22.01.2020 18:30 22,9 C 1,4 C 31 % 96 % 1034,0 hPa 0,0 l/m 0,0 km/h (0 Bft) SW 230 0,8 C 1,4 C 0,0 km/h (0 Bft)
22.01.2020 18:28 22,9 C 1,4 C 31 % 96 % 1033,9 hPa 0,0 l/m 0,0 km/h (0 Bft) SW 230 0,8 C 1,4 C 1,6 km/h (1 Bft)
22.01.2020 18:26 22,9 C 1,4 C 31 % 96 % 1033,9 hPa 0,0 l/m 0,0 km/h (0 Bft) SW 230 0,8 C 1,4 C 0,0 km/h (0 Bft)
22.01.2020 18:24 22,9 C 1,4 C 30 % 96 % 1033,9 hPa 0,0 l/m 0,0 km/h (0 Bft) SW 230 0,8 C 1,4 C 0,0 km/h (0 Bft)
22.01.2020 18:22 22,9 C 1,4 C 31 % 96 % 1033,9 hPa 0,0 l/m 0,0 km/h (0 Bft) SW 230 0,8 C 1,4 C 0,0 km/h (0 Bft)
22.01.2020 18:20 22,9 C 1,4 C 30 % 96 % 1033,9 hPa 0,0 l/m 0,0 km/h (0 Bft) SW 230 0,8 C 1,4 C 0,0 km/h (0 Bft)
22.01.2020 18:18 22,9 C 1,4 C 31 % 96 % 1033,9 hPa 0,0 l/m 0,0 km/h (0 Bft) SW 230 0,8 C 1,4 C 0,0 km/h (0 Bft)
22.01.2020 18:16 22,9 C 1,4 C 30 % 96 % 1033,9 hPa 0,0 l/m 0,0 km/h (0 Bft) SW 230 0,8 C 1,4 C 0,0 km/h (0 Bft)
22.01.2020 18:14 22,9 C 1,4 C 30 % 96 % 1033,8 hPa 0,0 l/m 0,0 km/h (0 Bft) SW 230 0,8 C 1,4 C 0,0 km/h (0 Bft)
22.01.2020 18:12 22,9 C 1,4 C 30 % 96 % 1033,8 hPa 0,0 l/m 0,0 km/h (0 Bft) SW 230 0,8 C 1,4 C 0,0 km/h (0 Bft)
22.01.2020 18:10 22,9 C 1,4 C 30 % 96 % 1033,8 hPa 0,0 l/m 0,0 km/h (0 Bft) SW 230 0,8 C 1,4 C 0,0 km/h (0 Bft)
22.01.2020 18:08 22,9 C 1,5 C 30 % 96 % 1033,8 hPa 0,0 l/m 0,0 km/h (0 Bft) SW 230 0,9 C 1,5 C 0,0 km/h (0 Bft)
22.01.2020 18:06 22,9 C 1,5 C 30 % 96 % 1033,8 hPa 0,0 l/m 0,0 km/h (0 Bft) SW 230 0,9 C 1,5 C 0,0 km/h (0 Bft)
22.01.2020 18:04 22,9 C 1,5 C 31 % 96 % 1033,8 hPa 0,0 l/m 0,0 km/h (0 Bft) SW 230 0,9 C 1,5 C 0,0 km/h (0 Bft)
22.01.2020 18:02 22,9 C 1,5 C 30 % 96 % 1033,8 hPa 0,0 l/m 0,1 km/h (0 Bft) SW 230 0,9 C 1,5 C 1,6 km/h (1 Bft)
22.01.2020 18:00 22,9 C 1,5 C 30 % 96 % 1033,8 hPa 0,0 l/m 0,0 km/h (0 Bft) SW 230 0,9 C 1,5 C 0,0 km/h (0 Bft)
22.01.2020 17:59 22,9 C 1,5 C 30 % 96 % 1033,8 hPa 0,0 l/m 0,0 km/h (0 Bft) SW 230 0,9 C 1,5 C 0,0 km/h (0 Bft)
22.01.2020 17:56 22,9 C 1,5 C 30 % 95 % 1033,6 hPa 0,0 l/m 0,0 km/h (0 Bft) SW 230 0,8 C 1,5 C 0,0 km/h (0 Bft)
22.01.2020 17:54 22,9 C 1,5 C 30 % 96 % 1033,6 hPa 0,0 l/m 0,0 km/h (0 Bft) SW 230 0,9 C 1,5 C 0,0 km/h (0 Bft)
22.01.2020 17:52 22,9 C 1,6 C 30 % 96 % 1033,6 hPa 0,0 l/m 0,8 km/h (0 Bft) SW 230 1,0 C 1,6 C 4,8 km/h (1 Bft)
22.01.2020 17:50 22,9 C 1,6 C 30 % 96 % 1033,6 hPa 0,0 l/m 0,0 km/h (0 Bft) SW 230 1,0 C 1,6 C 0,0 km/h (0 Bft)
22.01.2020 17:48 22,9 C 1,6 C 30 % 96 % 1033,6 hPa 0,0 l/m 0,0 km/h (0 Bft) SW 230 1,0 C 1,6 C 0,0 km/h (0 Bft)
22.01.2020 17:46 22,9 C 1,6 C 30 % 96 % 1033,6 hPa 0,0 l/m 0,0 km/h (0 Bft) SW 230 1,0 C 1,6 C 1,6 km/h (1 Bft)
22.01.2020 17:44 22,9 C 1,6 C 30 % 96 % 1033,6 hPa 0,0 l/m 0,0 km/h (0 Bft) SW 230 1,0 C 1,6 C 0,0 km/h (0 Bft)
22.01.2020 17:42 22,9 C 1,6 C 30 % 96 % 1033,6 hPa 0,0 l/m 0,0 km/h (0 Bft) SW 230 1,0 C 1,6 C 0,0 km/h (0 Bft)
22.01.2020 17:40 22,9 C 1,6 C 30 % 96 % 1033,6 hPa 0,0 l/m 0,0 km/h (0 Bft) SW 230 1,0 C 1,6 C 0,0 km/h (0 Bft)
22.01.2020 17:38 22,9 C 1,6 C 30 % 96 % 1033,6 hPa 0,0 l/m 0,0 km/h (0 Bft) SW 230 1,0 C 1,6 C 0,0 km/h (0 Bft)
22.01.2020 17:36 22,9 C 1,6 C 30 % 96 % 1033,6 hPa 0,0 l/m 0,0 km/h (0 Bft) SW 230 1,0 C 1,6 C 0,0 km/h (0 Bft)
22.01.2020 17:34 22,9 C 1,6 C 30 % 96 % 1033,6 hPa 0,0 l/m 0,0 km/h (0 Bft) SW 230 1,0 C 1,6 C 0,0 km/h (0 Bft)
22.01.2020 17:32 22,9 C 1,6 C 30 % 96 % 1033,6 hPa 0,0 l/m 0,0 km/h (0 Bft) SW 230 1,0 C 1,6 C 0,0 km/h (0 Bft)
22.01.2020 17:30 22,9 C 1,6 C 30 % 96 % 1033,6 hPa 0,0 l/m 0,0 km/h (0 Bft) SW 230 1,0 C 1,6 C 0,0 km/h (0 Bft)
22.01.2020 17:28 22,9 C 1,6 C 30 % 96 % 1033,6 hPa 0,0 l/m 0,0 km/h (0 Bft) SW 230 1,0 C 1,6 C 1,6 km/h (1 Bft)
22.01.2020 17:26 22,9 C 1,6 C 30 % 96 % 1033,6 hPa 0,0 l/m 0,0 km/h (0 Bft) SW 230 1,0 C 1,6 C 0,0 km/h (0 Bft)
22.01.2020 17:24 22,9 C 1,6 C 30 % 96 % 1033,6 hPa 0,0 l/m 0,0 km/h (0 Bft) SW 230 1,0 C 1,6 C 0,0 km/h (0 Bft)
22.01.2020 17:22 22,9 C 1,7 C 30 % 96 % 1033,6 hPa 0,0 l/m 0,0 km/h (0 Bft) SW 230 1,1 C 1,7 C 0,0 km/h (0 Bft)
22.01.2020 17:20 22,9 C 1,7 C 32 % 96 % 1033,6 hPa 0,0 l/m 0,0 km/h (0 Bft) SW 230 1,1 C 1,7 C 0,0 km/h (0 Bft)
22.01.2020 17:18 22,9 C 1,7 C 30 % 96 % 1033,6 hPa 0,0 l/m 0,0 km/h (0 Bft) SW 230 1,1 C 1,7 C 0,0 km/h (0 Bft)
22.01.2020 17:16 22,9 C 1,7 C 30 % 96 % 1033,6 hPa 0,0 l/m 0,0 km/h (0 Bft) SW 230 1,1 C 1,7 C 0,0 km/h (0 Bft)
22.01.2020 17:14 22,9 C 1,7 C 30 % 96 % 1033,7 hPa 0,0 l/m 0,0 km/h (0 Bft) SW 230 1,1 C 1,7 C 0,0 km/h (0 Bft)
22.01.2020 17:12 22,9 C 1,7 C 30 % 96 % 1033,7 hPa 0,0 l/m 0,0 km/h (0 Bft) SW 230 1,1 C 1,7 C 0,0 km/h (0 Bft)
22.01.2020 17:10 22,9 C 1,7 C 30 % 96 % 1033,7 hPa 0,0 l/m 0,0 km/h (0 Bft) SW 236 1,1 C 1,7 C 1,6 km/h (1 Bft)
22.01.2020 17:08 22,9 C 1,7 C 30 % 96 % 1033,7 hPa 0,0 l/m 0,0 km/h (0 Bft) SW 236 1,1 C 1,7 C 0,0 km/h (0 Bft)
22.01.2020 17:06 22,9 C 1,7 C 30 % 96 % 1033,7 hPa 0,0 l/m 0,0 km/h (0 Bft) SW 236 1,1 C 1,7 C 0,0 km/h (0 Bft)
22.01.2020 17:04 22,9 C 1,8 C 30 % 96 % 1033,7 hPa 0,0 l/m 0,0 km/h (0 Bft) SW 236 1,2 C 1,8 C 0,0 km/h (0 Bft)
22.01.2020 17:02 22,9 C 1,8 C 30 % 96 % 1033,7 hPa 0,0 l/m 0,0 km/h (0 Bft) SW 236 1,2 C 1,8 C 0,0 km/h (0 Bft)
22.01.2020 17:00 22,9 C 1,8 C 30 % 96 % 1033,7 hPa 0,0 l/m 0,0 km/h (0 Bft) SW 236 1,2 C 1,8 C 0,0 km/h (0 Bft)
22.01.2020 16:58 22,9 C 1,8 C 30 % 96 % 1033,6 hPa 0,0 l/m 0,0 km/h (0 Bft) SW 236 1,2 C 1,8 C 0,0 km/h (0 Bft)
22.01.2020 16:56 22,9 C 1,8 C 30 % 96 % 1033,6 hPa 0,0 l/m 0,1 km/h (0 Bft) SW 236 1,2 C 1,8 C 1,6 km/h (1 Bft)
22.01.2020 16:54 22,9 C 1,8 C 30 % 96 % 1033,6 hPa 0,0 l/m 0,2 km/h (0 Bft) SW 236 1,2 C 1,8 C 3,2 km/h (1 Bft)
22.01.2020 16:52 22,9 C 1,9 C 30 % 96 % 1033,6 hPa 0,0 l/m 0,0 km/h (0 Bft) SW 231 1,3 C 1,9 C 1,6 km/h (1 Bft)
22.01.2020 16:50 22,9 C 1,9 C 30 % 96 % 1033,6 hPa 0,0 l/m 0,0 km/h (0 Bft) SW 231 1,3 C 1,9 C 0,0 km/h (0 Bft)
22.01.2020 16:48 22,9 C 1,9 C 30 % 96 % 1033,6 hPa 0,0 l/m 0,0 km/h (0 Bft) SW 231 1,3 C 1,9 C 0,0 km/h (0 Bft)
22.01.2020 16:46 22,9 C 1,9 C 30 % 96 % 1033,6 hPa 0,0 l/m 0,0 km/h (0 Bft) SW 231 1,3 C 1,9 C 0,0 km/h (0 Bft)
22.01.2020 16:44 23,1 C 1,9 C 30 % 96 % 1033,6 hPa 0,0 l/m 0,0 km/h (0 Bft) SW 231 1,3 C 1,9 C 0,0 km/h (0 Bft)
22.01.2020 16:42 23,1 C 1,9 C 30 % 96 % 1033,6 hPa 0,0 l/m 0,1 km/h (0 Bft) SW 231 1,3 C 1,9 C 1,6 km/h (1 Bft)
22.01.2020 16:40 23,1 C 2,0 C 30 % 96 % 1033,6 hPa 0,0 l/m 0,0 km/h (0 Bft) SW 217 1,4 C 2,0 C 0,0 km/h (0 Bft)
22.01.2020 16:38 23,1 C 2,0 C 30 % 96 % 1033,6 hPa 0,0 l/m 0,0 km/h (0 Bft) SW 217 1,4 C 2,0 C 0,0 km/h (0 Bft)
22.01.2020 16:36 23,1 C 2,0 C 30 % 96 % 1033,6 hPa 0,0 l/m 0,0 km/h (0 Bft) SW 217 1,4 C 2,0 C 0,0 km/h (0 Bft)
22.01.2020 16:34 23,1 C 2,1 C 30 % 96 % 1033,6 hPa 0,0 l/m 0,0 km/h (0 Bft) SW 217 1,5 C 2,1 C 0,0 km/h (0 Bft)
22.01.2020 16:32 23,1 C 2,1 C 30 % 96 % 1033,6 hPa 0,0 l/m 0,0 km/h (0 Bft) SW 217 1,5 C 2,1 C 0,0 km/h (0 Bft)
22.01.2020 16:30 23,1 C 2,1 C 30 % 96 % 1033,6 hPa 0,0 l/m 0,0 km/h (0 Bft) SW 217 1,5 C 2,1 C 0,0 km/h (0 Bft)
22.01.2020 16:28 23,1 C 2,1 C 30 % 96 % 1033,6 hPa 0,0 l/m 0,0 km/h (0 Bft) SW 217 1,5 C 2,1 C 0,0 km/h (0 Bft)
22.01.2020 16:26 23,1 C 2,1 C 30 % 96 % 1033,6 hPa 0,0 l/m 0,0 km/h (0 Bft) SW 217 1,5 C 2,1 C 0,0 km/h (0 Bft)
22.01.2020 16:24 23,1 C 2,1 C 30 % 96 % 1033,6 hPa 0,0 l/m 0,0 km/h (0 Bft) SW 217 1,5 C 2,1 C 0,0 km/h (0 Bft)
22.01.2020 16:22 23,1 C 2,1 C 30 % 96 % 1033,6 hPa 0,0 l/m 0,0 km/h (0 Bft) SW 217 1,5 C 2,1 C 0,0 km/h (0 Bft)
22.01.2020 16:20 23,1 C 2,1 C 30 % 96 % 1033,6 hPa 0,0 l/m 0,0 km/h (0 Bft) SW 217 1,5 C 2,1 C 0,0 km/h (0 Bft)
22.01.2020 16:18 23,1 C 2,1 C 30 % 96 % 1033,6 hPa 0,0 l/m 0,0 km/h (0 Bft) SW 217 1,5 C 2,1 C 0,0 km/h (0 Bft)
22.01.2020 16:16 23,1 C 2,1 C 30 % 96 % 1033,6 hPa 0,0 l/m 0,0 km/h (0 Bft) SW 217 1,5 C 2,1 C 0,0 km/h (0 Bft)
22.01.2020 16:14 23,1 C 2,1 C 30 % 96 % 1033,5 hPa 0,0 l/m 0,0 km/h (0 Bft) SW 217 1,5 C 2,1 C 0,0 km/h (0 Bft)
22.01.2020 16:12 23,1 C 2,1 C 30 % 96 % 1033,5 hPa 0,0 l/m 0,0 km/h (0 Bft) SW 217 1,5 C 2,1 C 0,0 km/h (0 Bft)
22.01.2020 16:10 23,1 C 2,2 C 30 % 96 % 1033,5 hPa 0,0 l/m 0,0 km/h (0 Bft) SW 217 1,6 C 2,2 C 0,0 km/h (0 Bft)
22.01.2020 16:08 23,1 C 2,2 C 30 % 96 % 1033,5 hPa 0,0 l/m 0,0 km/h (0 Bft) SW 217 1,6 C 2,2 C 1,6 km/h (1 Bft)
22.01.2020 16:06 23,1 C 2,2 C 30 % 96 % 1033,5 hPa 0,0 l/m 0,0 km/h (0 Bft) SW 217 1,6 C 2,2 C 0,0 km/h (0 Bft)
22.01.2020 16:04 23,1 C 2,2 C 30 % 96 % 1033,5 hPa 0,0 l/m 0,0 km/h (0 Bft) SW 217 1,6 C 2,2 C 0,0 km/h (0 Bft)
22.01.2020 16:02 23,1 C 2,2 C 30 % 96 % 1033,5 hPa 0,0 l/m 0,0 km/h (0 Bft) SW 217 1,6 C 2,2 C 0,0 km/h (0 Bft)
22.01.2020 16:00 23,1 C 2,2 C 30 % 96 % 1033,5 hPa 0,0 l/m 0,0 km/h (0 Bft) SW 217 1,6 C 2,2 C 0,0 km/h (0 Bft)
22.01.2020 15:58 23,1 C 2,2 C 30 % 96 % 1033,4 hPa 0,0 l/m 0,0 km/h (0 Bft) SW 217 1,6 C 2,2 C 0,0 km/h (0 Bft)
22.01.2020 15:56 23,1 C 2,2 C 30 % 96 % 1033,4 hPa 0,0 l/m 0,0 km/h (0 Bft) SW 217 1,6 C 2,2 C 0,0 km/h (0 Bft)
22.01.2020 15:54 23,1 C 2,2 C 30 % 96 % 1033,4 hPa 0,0 l/m 0,0 km/h (0 Bft) SW 217 1,6 C 2,2 C 0,0 km/h (0 Bft)
22.01.2020 15:52 23,1 C 2,2 C 30 % 96 % 1033,4 hPa 0,0 l/m 0,0 km/h (0 Bft) SW 217 1,6 C 2,2 C 0,0 km/h (0 Bft)
22.01.2020 15:50 23,1 C 2,2 C 30 % 96 % 1033,4 hPa 0,0 l/m 0,0 km/h (0 Bft) SW 217 1,6 C 2,2 C 0,0 km/h (0 Bft)
22.01.2020 15:48 23,1 C 2,2 C 30 % 96 % 1033,4 hPa 0,0 l/m 0,0 km/h (0 Bft) SW 217 1,6 C 2,2 C 0,0 km/h (0 Bft)
22.01.2020 15:46 23,1 C 2,2 C 30 % 96 % 1033,4 hPa 0,0 l/m 0,0 km/h (0 Bft) SW 217 1,6 C 2,2 C 0,0 km/h (0 Bft)
22.01.2020 15:44 23,1 C 2,2 C 30 % 96 % 1033,2 hPa 0,0 l/m 0,0 km/h (0 Bft) SW 217 1,6 C 2,2 C 0,0 km/h (0 Bft)
22.01.2020 15:42 23,1 C 2,2 C 30 % 96 % 1033,2 hPa 0,0 l/m 0,0 km/h (0 Bft) SW 217 1,6 C 2,2 C 0,0 km/h (0 Bft)
22.01.2020 15:40 23,1 C 2,2 C 30 % 96 % 1033,2 hPa 0,0 l/m 0,0 km/h (0 Bft) SW 217 1,6 C 2,2 C 0,0 km/h (0 Bft)
22.01.2020 15:38 23,1 C 2,2 C 30 % 96 % 1033,2 hPa 0,0 l/m 0,0 km/h (0 Bft) SW 221 1,6 C 2,2 C 0,0 km/h (0 Bft)
22.01.2020 15:36 23,1 C 2,2 C 30 % 96 % 1033,2 hPa 0,0 l/m 0,0 km/h (0 Bft) SW 221 1,6 C 2,2 C 0,0 km/h (0 Bft)
22.01.2020 15:34 23,1 C 2,2 C 30 % 96 % 1033,2 hPa 0,0 l/m 0,1 km/h (0 Bft) SW 221 1,6 C 2,2 C 1,6 km/h (1 Bft)
22.01.2020 15:32 23,1 C 2,2 C 30 % 96 % 1033,2 hPa 0,0 l/m 0,0 km/h (0 Bft) SW 221 1,6 C 2,2 C 0,0 km/h (0 Bft)
22.01.2020 15:30 23,1 C 2,2 C 30 % 96 % 1033,2 hPa 0,0 l/m 0,0 km/h (0 Bft) SW 221 1,6 C 2,2 C 0,0 km/h (0 Bft)
22.01.2020 15:28 23,1 C 2,2 C 30 % 96 % 1033,4 hPa 0,0 l/m 0,0 km/h (0 Bft) SW 221 1,6 C 2,2 C 0,0 km/h (0 Bft)
22.01.2020 15:26 23,1 C 2,2 C 30 % 96 % 1033,4 hPa 0,0 l/m 0,3 km/h (0 Bft) SW 221 1,6 C 2,2 C 3,2 km/h (1 Bft)
22.01.2020 15:24 23,1 C 2,2 C 30 % 96 % 1033,4 hPa 0,0 l/m 0,7 km/h (0 Bft) SW 221 1,6 C 2,2 C 3,2 km/h (1 Bft)
22.01.2020 15:22 23,1 C 2,2 C 30 % 96 % 1033,4 hPa 0,0 l/m 0,1 km/h (0 Bft) SW 221 1,6 C 2,2 C 1,6 km/h (1 Bft)
22.01.2020 15:20 23,1 C 2,2 C 30 % 96 % 1033,4 hPa 0,0 l/m 0,0 km/h (0 Bft) SW 221 1,6 C 2,2 C 0,0 km/h (0 Bft)
22.01.2020 15:18 23,1 C 2,2 C 30 % 96 % 1033,4 hPa 0,0 l/m 0,0 km/h (0 Bft) SW 221 1,6 C 2,2 C 0,0 km/h (0 Bft)
22.01.2020 15:16 23,1 C 2,2 C 30 % 96 % 1033,4 hPa 0,0 l/m 0,0 km/h (0 Bft) SW 221 1,6 C 2,2 C 0,0 km/h (0 Bft)
22.01.2020 15:14 23,1 C 2,2 C 30 % 96 % 1033,4 hPa 0,0 l/m 0,0 km/h (0 Bft) SW 221 1,6 C 2,2 C 0,0 km/h (0 Bft)
22.01.2020 15:12 23,1 C 2,2 C 30 % 96 % 1033,4 hPa 0,0 l/m 1,0 km/h (0 Bft) SW 221 1,6 C 2,2 C 3,2 km/h (1 Bft)
22.01.2020 15:10 23,1 C 2,2 C 30 % 96 % 1033,4 hPa 0,0 l/m 0,5 km/h (0 Bft) SW 221 1,6 C 2,2 C 3,2 km/h (1 Bft)
22.01.2020 15:08 23,1 C 2,2 C 30 % 96 % 1033,4 hPa 0,0 l/m 0,0 km/h (0 Bft) S 175 1,6 C 2,2 C 0,0 km/h (0 Bft)
22.01.2020 15:06 23,1 C 2,2 C 30 % 96 % 1033,4 hPa 0,0 l/m 0,7 km/h (0 Bft) S 175 1,6 C 2,2 C 3,2 km/h (1 Bft)
22.01.2020 15:04 23,1 C 2,2 C 30 % 96 % 1033,4 hPa 0,0 l/m 0,3 km/h (0 Bft) S 175 1,6 C 2,2 C 1,6 km/h (1 Bft)
22.01.2020 15:02 23,1 C 2,2 C 30 % 96 % 1033,4 hPa 0,0 l/m 0,0 km/h (0 Bft) S 175 1,6 C 2,2 C 0,0 km/h (0 Bft)
22.01.2020 15:00 23,1 C 2,2 C 30 % 96 % 1033,4 hPa 0,0 l/m 0,0 km/h (0 Bft) S 175 1,6 C 2,2 C 0,0 km/h (0 Bft)
22.01.2020 14:58 23,1 C 2,2 C 30 % 96 % 1033,4 hPa 0,0 l/m 0,0 km/h (0 Bft) S 175 1,6 C 2,2 C 0,0 km/h (0 Bft)
22.01.2020 14:56 23,1 C 2,2 C 30 % 96 % 1033,4 hPa 0,0 l/m 0,0 km/h (0 Bft) S 175 1,6 C 2,2 C 0,0 km/h (0 Bft)
22.01.2020 14:54 23,1 C 2,3 C 30 % 96 % 1033,4 hPa 0,0 l/m 0,0 km/h (0 Bft) S 175 1,7 C 2,3 C 0,0 km/h (0 Bft)
22.01.2020 14:52 23,1 C 2,3 C 32 % 96 % 1033,4 hPa 0,0 l/m 0,0 km/h (0 Bft) S 175 1,7 C 2,3 C 0,0 km/h (0 Bft)
22.01.2020 14:50 23,1 C 2,3 C 30 % 96 % 1033,4 hPa 0,0 l/m 0,0 km/h (0 Bft) S 175 1,7 C 2,3 C 0,0 km/h (0 Bft)
22.01.2020 14:48 23,1 C 2,3 C 30 % 96 % 1033,4 hPa 0,0 l/m 0,0 km/h (0 Bft) S 175 1,7 C 2,3 C 0,0 km/h (0 Bft)
22.01.2020 14:46 23,1 C 2,3 C 30 % 96 % 1033,4 hPa 0,0 l/m 0,0 km/h (0 Bft) SW 223 1,7 C 2,3 C 0,0 km/h (0 Bft)
22.01.2020 14:44 23,1 C 2,3 C 30 % 96 % 1033,5 hPa 0,0 l/m 0,0 km/h (0 Bft) SW 224 1,7 C 2,3 C 1,6 km/h (1 Bft)
22.01.2020 14:42 23,1 C 2,3 C 30 % 96 % 1033,5 hPa 0,0 l/m 0,0 km/h (0 Bft) SW 224 1,7 C 2,3 C 0,0 km/h (0 Bft)
22.01.2020 14:40 23,1 C 2,3 C 30 % 96 % 1033,5 hPa 0,0 l/m 0,5 km/h (0 Bft) SW 223 1,7 C 2,3 C 3,2 km/h (1 Bft)
22.01.2020 14:38 23,1 C 2,3 C 30 % 96 % 1033,5 hPa 0,0 l/m 0,1 km/h (0 Bft) SW 223 1,7 C 2,3 C 1,6 km/h (1 Bft)
22.01.2020 14:36 22,9 C 2,4 C 30 % 96 % 1033,5 hPa 0,0 l/m 0,0 km/h (0 Bft) SW 223 1,8 C 2,4 C 0,0 km/h (0 Bft)
22.01.2020 14:34 22,9 C 2,4 C 30 % 96 % 1033,5 hPa 0,0 l/m 0,0 km/h (0 Bft) SW 223 1,8 C 2,4 C 1,6 km/h (1 Bft)
22.01.2020 14:32 22,9 C 2,4 C 30 % 96 % 1033,5 hPa 0,0 l/m 0,4 km/h (0 Bft) SW 223 1,8 C 2,4 C 1,6 km/h (1 Bft)
22.01.2020 14:30 22,9 C 2,4 C 30 % 96 % 1033,5 hPa 0,0 l/m 0,0 km/h (0 Bft) SW 223 1,8 C 2,4 C 0,0 km/h (0 Bft)
22.01.2020 14:28 22,9 C 2,4 C 30 % 96 % 1033,5 hPa 0,0 l/m 0,1 km/h (0 Bft) SW 223 1,8 C 2,4 C 1,6 km/h (1 Bft)
22.01.2020 14:26 22,9 C 2,4 C 30 % 96 % 1033,5 hPa 0,0 l/m 0,0 km/h (0 Bft) SW 223 1,8 C 2,4 C 0,0 km/h (0 Bft)
22.01.2020 14:24 22,9 C 2,4 C 30 % 96 % 1033,5 hPa 0,0 l/m 0,0 km/h (0 Bft) SW 223 1,8 C 2,4 C 0,0 km/h (0 Bft)
22.01.2020 14:22 22,9 C 2,4 C 30 % 96 % 1033,5 hPa 0,0 l/m 0,0 km/h (0 Bft) SW 223 1,8 C 2,4 C 0,0 km/h (0 Bft)
22.01.2020 14:20 22,9 C 2,5 C 30 % 96 % 1033,5 hPa 0,0 l/m 0,1 km/h (0 Bft) SW 223 1,9 C 2,5 C 1,6 km/h (1 Bft)
22.01.2020 14:18 22,9 C 2,5 C 30 % 96 % 1033,5 hPa 0,0 l/m 0,8 km/h (0 Bft) SW 223 1,9 C 2,5 C 3,2 km/h (1 Bft)
22.01.2020 14:16 22,9 C 2,5 C 30 % 96 % 1033,5 hPa 0,0 l/m 0,3 km/h (0 Bft) S-SW 199 1,9 C 2,5 C 3,2 km/h (1 Bft)
22.01.2020 14:14 22,9 C 2,5 C 30 % 96 % 1033,5 hPa 0,0 l/m 0,0 km/h (0 Bft) W-SW 249 1,9 C 2,5 C 0,0 km/h (0 Bft)
22.01.2020 14:12 22,9 C 2,6 C 30 % 96 % 1033,5 hPa 0,0 l/m 0,0 km/h (0 Bft) W-SW 249 2,0 C 2,6 C 0,0 km/h (0 Bft)
22.01.2020 14:10 22,9 C 2,6 C 30 % 96 % 1033,5 hPa 0,0 l/m 0,2 km/h (0 Bft) W-SW 249 2,0 C 2,6 C 1,6 km/h (1 Bft)
22.01.2020 14:08 22,9 C 2,6 C 30 % 96 % 1033,5 hPa 0,0 l/m 0,5 km/h (0 Bft) W-SW 249 2,0 C 2,6 C 3,2 km/h (1 Bft)
22.01.2020 14:06 22,9 C 2,6 C 30 % 96 % 1033,5 hPa 0,0 l/m 0,0 km/h (0 Bft) W-SW 248 2,0 C 2,6 C 0,0 km/h (0 Bft)
22.01.2020 14:04 22,9 C 2,6 C 30 % 96 % 1033,5 hPa 0,0 l/m 0,0 km/h (0 Bft) W-SW 248 2,0 C 2,6 C 0,0 km/h (0 Bft)
22.01.2020 14:02 22,9 C 2,6 C 30 % 96 % 1033,5 hPa 0,0 l/m 0,0 km/h (0 Bft) W-SW 248 2,0 C 2,6 C 0,0 km/h (0 Bft)
22.01.2020 14:00 22,9 C 2,6 C 30 % 96 % 1033,5 hPa 0,0 l/m 0,1 km/h (0 Bft) W-SW 248 2,0 C 2,6 C 1,6 km/h (1 Bft)
_ Min-Zeit 05:28 19:02 05:00 13:24 13:24 - 13:20 - - 19:02 19:02 13:20
Minimum _ 21,4 C 1,3 C 30 % 86 % 1029,1 hPa - 0,0 km/h (0 Bft) - - 0,7 C 1,3 C 0,0 km/h (0 Bft)
_ Max-Zeit 16:44 13:02 11:30 09:52 22:58 11:42 11:02 - - 10:30 13:02 11:02
Maximum _ 23,1 C 3,3 C 33 % 97 % 1034,5 hPa 0,2 l/m 5,5 km/h
SW (1 Bft)
- - 2,1 C 3,3 C 14,5 km/h
SW (3 Bft)
Durchschnitt _ 22,3 C 2,1 C 31 % 95 % 1032,9 hPa #0,2 l/m 0,3 km/h (0 Bft) S-SW - 1,4 C 2,1 C 0,9 km/h (0 Bft)